SWR39 KSFO-LSZH

Flight info

Callsign SWR39
Flight time 10h 49m
Altitude 33000
Route SNTNA2 TIPRE Q126 INSLO DCT DTA DCT CHE DCT CYS J148 HANKI DCT ONL DCT GRB DCT TVC DCT YYB/N0480F350 DCT QUBIS DCT NICSO/M084F350 DCT 4730N05000W 48N040W 48N030W 4930N02000W DCT KOGAD DCT BIMGO DCT RATKA/N0481F350 DCT LARLA/N0484F380 DCT GANTO/N0484F370 DCT JSY DCT ARSUK DCT RESMI DCT TEPRI DCT POGZI DCT GELTA DCT MANAG DCT PEVIT DCT BLM
Aircraft B77W/H-SDE1E2E3FGHIJ2J3J4J5M1RWXY/LB1D1

Departure

Time 2026-05-05 07:29
Airport San Francisco International Airport (KSFO)

Arrival

Time 2026-05-05 18:18
Airport Zürich Airport (LSZH)
Time Latitude Longitude Altitude Speed Heading
2026-05-05 07:03 37.61900 -122.39403 27 ft 0 kts 155°
2026-05-05 07:17 37.61912 -122.39411 26 ft 2 kts 154°
2026-05-05 07:18 37.61926 -122.39420 26 ft 2 kts 152°
2026-05-05 07:18 37.61941 -122.39430 26 ft 2 kts 149°
2026-05-05 07:18 37.61955 -122.39441 26 ft 2 kts 143°
2026-05-05 07:18 37.61967 -122.39454 25 ft 2 kts 127°
2026-05-05 07:19 37.61973 -122.39473 25 ft 2 kts 78°
2026-05-05 07:19 37.61972 -122.39479 24 ft 0 kts 73°
2026-05-05 07:21 37.61974 -122.39471 25 ft 6 kts 72°
2026-05-05 07:21 37.62002 -122.39357 27 ft 16 kts 72°
2026-05-05 07:21 37.62049 -122.39229 27 ft 16 kts 39°
2026-05-05 07:21 37.62149 -122.39161 27 ft 16 kts 27°
2026-05-05 07:22 37.62235 -122.39074 27 ft 16 kts 66°
2026-05-05 07:22 37.62264 -122.38937 27 ft 16 kts 91°
2026-05-05 07:22 37.62220 -122.38806 27 ft 16 kts 116°
2026-05-05 07:22 37.62170 -122.38677 27 ft 16 kts 116°
2026-05-05 07:23 37.62110 -122.38541 27 ft 21 kts 119°
2026-05-05 07:23 37.62030 -122.38355 27 ft 26 kts 118°
2026-05-05 07:23 37.61946 -122.38153 27 ft 26 kts 117°
2026-05-05 07:23 37.61862 -122.37951 27 ft 26 kts 117°
2026-05-05 07:24 37.61792 -122.37745 27 ft 26 kts 111°
2026-05-05 07:24 37.61727 -122.37533 27 ft 26 kts 112°
2026-05-05 07:24 37.61644 -122.37330 27 ft 26 kts 118°
2026-05-05 07:24 37.61559 -122.37129 27 ft 26 kts 117°
2026-05-05 07:25 37.61470 -122.36932 27 ft 26 kts 128°
2026-05-05 07:25 37.61356 -122.36756 27 ft 26 kts 122°
2026-05-05 07:25 37.61272 -122.36556 27 ft 26 kts 117°
2026-05-05 07:25 37.61188 -122.36354 27 ft 26 kts 118°
2026-05-05 07:26 37.61108 -122.36168 27 ft 18 kts 118°
2026-05-05 07:26 37.61056 -122.36045 27 ft 13 kts 115°
2026-05-05 07:26 37.61060 -122.35938 27 ft 13 kts 57°
2026-05-05 07:26 37.61134 -122.35882 27 ft 12 kts 26°
2026-05-05 07:27 37.61181 -122.35868 27 ft 6 kts 339°
2026-05-05 07:27 37.61198 -122.35901 27 ft 0 kts 297°
2026-05-05 07:28 37.61230 -122.35980 27 ft 34 kts 297°
2026-05-05 07:29 37.61458 -122.36524 26 ft 104 kts 297°
2026-05-05 07:29 37.61896 -122.37571 27 ft 163 kts 298°
2026-05-05 07:29 37.62495 -122.38982 143 ft 195 kts 299°
2026-05-05 07:29 37.63144 -122.40421 856 ft 190 kts 301°
2026-05-05 07:30 37.63824 -122.41884 1465 ft 194 kts 300°
2026-05-05 07:30 37.65083 -122.44914 2335 ft 209 kts 297°
2026-05-05 07:30 37.65792 -122.46617 2585 ft 228 kts 298°
2026-05-05 07:31 37.66572 -122.48447 2975 ft 242 kts 298°
2026-05-05 07:31 37.67393 -122.50348 3520 ft 250 kts 299°
2026-05-05 07:31 37.68567 -122.51990 3936 ft 261 kts 330°
2026-05-05 07:31 37.70336 -122.52540 4472 ft 266 kts 358°
2026-05-05 07:32 37.72209 -122.52549 5019 ft 273 kts 357°
2026-05-05 07:32 37.74107 -122.52610 5767 ft 272 kts 357°
2026-05-05 07:32 37.75983 -122.52680 6614 ft 267 kts 357°
2026-05-05 07:32 37.77818 -122.52747 7272 ft 268 kts 359°
2026-05-05 07:33 37.79656 -122.52350 7729 ft 274 kts 26°
2026-05-05 07:33 37.81108 -122.50793 8289 ft 278 kts 54°
2026-05-05 07:33 37.81981 -122.48618 8902 ft 279 kts 64°
2026-05-05 07:33 37.82771 -122.46350 9497 ft 283 kts 64°
2026-05-05 07:34 37.83571 -122.44070 10159 ft 284 kts 64°
2026-05-05 07:34 37.84337 -122.41711 10503 ft 299 kts 67°
2026-05-05 07:34 37.85040 -122.39170 10659 ft 320 kts 69°
2026-05-05 07:34 37.85766 -122.36415 10823 ft 340 kts 69°
2026-05-05 07:35 37.86533 -122.33484 11087 ft 358 kts 69°
2026-05-05 07:35 37.87327 -122.30457 11655 ft 366 kts 69°
2026-05-05 07:35 37.88136 -122.27387 12406 ft 369 kts 69°
2026-05-05 07:35 37.88951 -122.24308 13337 ft 368 kts 68°
2026-05-05 07:36 37.89769 -122.21231 14209 ft 369 kts 68°
2026-05-05 07:36 37.90590 -122.18152 14978 ft 370 kts 68°
2026-05-05 07:36 37.91421 -122.15031 15578 ft 377 kts 68°
2026-05-05 07:36 37.92263 -122.11885 16323 ft 378 kts 68°
2026-05-05 07:37 37.93105 -122.08739 17197 ft 376 kts 68°
2026-05-05 07:37 37.93944 -122.05599 18010 ft 377 kts 69°
2026-05-05 07:37 37.94787 -122.02436 18673 ft 380 kts 69°
2026-05-05 07:37 37.95637 -121.99244 19234 ft 384 kts 69°
2026-05-05 07:38 37.96484 -121.96057 19779 ft 388 kts 69°
2026-05-05 07:38 37.97349 -121.92797 20405 ft 391 kts 69°
2026-05-05 07:38 37.98219 -121.89515 20981 ft 395 kts 69°
2026-05-05 07:38 37.99096 -121.86200 21491 ft 398 kts 69°
2026-05-05 07:39 37.99980 -121.82858 22041 ft 402 kts 70°
2026-05-05 07:39 38.00873 -121.79481 22598 ft 406 kts 70°
2026-05-05 07:39 38.01468 -121.77227 22962 ft 408 kts 70°
2026-05-05 07:39 38.02676 -121.72638 23701 ft 412 kts 70°
2026-05-05 07:40 38.03278 -121.70351 23993 ft 413 kts 70°
2026-05-05 07:40 38.04190 -121.66880 24446 ft 416 kts 70°
2026-05-05 07:40 38.05106 -121.63388 24893 ft 418 kts 70°
2026-05-05 07:40 38.06027 -121.59874 25332 ft 421 kts 70°
2026-05-05 07:41 38.06953 -121.56335 25755 ft 424 kts 70°
2026-05-05 07:41 38.07883 -121.52776 26170 ft 426 kts 70°
2026-05-05 07:41 38.08818 -121.49196 26597 ft 429 kts 70°
2026-05-05 07:41 38.09757 -121.45591 27019 ft 431 kts 70°
2026-05-05 07:42 38.10700 -121.41968 27410 ft 433 kts 70°
2026-05-05 07:42 38.11648 -121.38320 27791 ft 436 kts 70°
2026-05-05 07:42 38.12588 -121.34699 28157 ft 438 kts 70°
2026-05-05 07:42 38.13545 -121.31003 28517 ft 441 kts 70°
2026-05-05 07:43 38.14504 -121.27299 28850 ft 443 kts 70°
2026-05-05 07:43 38.15466 -121.23573 29167 ft 445 kts 70°
2026-05-05 07:43 38.16434 -121.19821 29485 ft 447 kts 70°
2026-05-05 07:43 38.17403 -121.16057 29846 ft 447 kts 70°
2026-05-05 07:44 38.18372 -121.12290 30268 ft 446 kts 70°
2026-05-05 07:44 38.19331 -121.08555 30702 ft 443 kts 70°
2026-05-05 07:44 38.20271 -121.04888 31060 ft 442 kts 70°
2026-05-05 07:44 38.21133 -121.01102 31026 ft 448 kts 74°
2026-05-05 07:45 38.22295 -120.93251 31188 ft 454 kts 78°
2026-05-05 07:45 38.22786 -120.89298 31571 ft 451 kts 78°
2026-05-05 07:45 38.23276 -120.85382 32019 ft 446 kts 78°
2026-05-05 07:46 38.23778 -120.81503 32534 ft 441 kts 77°
2026-05-05 07:46 38.24290 -120.77680 33012 ft 436 kts 77°
2026-05-05 07:46 38.25343 -120.70070 33043 ft 435 kts 77°
2026-05-05 07:47 38.26399 -120.62536 33041 ft 431 kts 77°
2026-05-05 07:47 38.27442 -120.55073 33049 ft 431 kts 77°
2026-05-05 07:48 38.28483 -120.47564 33041 ft 431 kts 77°
2026-05-05 07:48 38.29522 -120.40032 33034 ft 432 kts 77°
2026-05-05 07:49 38.30557 -120.32486 33033 ft 433 kts 77°
2026-05-05 07:49 38.31589 -120.24922 33025 ft 434 kts 77°
2026-05-05 07:50 38.32618 -120.17351 33021 ft 434 kts 77°
2026-05-05 07:50 38.33643 -120.09763 33018 ft 434 kts 77°
2026-05-05 07:51 38.34654 -120.02237 33022 ft 434 kts 77°
2026-05-05 07:51 38.35669 -119.94647 33036 ft 434 kts 77°
2026-05-05 07:52 38.36680 -119.87047 33004 ft 435 kts 77°
2026-05-05 07:52 38.37686 -119.79447 32993 ft 435 kts 77°
2026-05-05 07:53 38.38682 -119.71882 32989 ft 436 kts 77°
2026-05-05 07:53 38.39689 -119.64206 32978 ft 437 kts 77°
2026-05-05 07:54 38.40677 -119.56621 32952 ft 437 kts 77°
2026-05-05 07:54 38.41669 -119.48966 32952 ft 437 kts 77°
2026-05-05 07:55 38.42655 -119.41313 32942 ft 438 kts 77°
2026-05-05 07:55 38.43637 -119.33659 32931 ft 437 kts 77°
2026-05-05 07:56 38.44616 -119.26000 32939 ft 438 kts 77°
2026-05-05 07:56 38.45592 -119.18307 32914 ft 440 kts 77°
2026-05-05 07:57 38.46565 -119.10594 32910 ft 440 kts 77°
2026-05-05 07:57 38.47534 -119.02869 32925 ft 441 kts 77°
2026-05-05 07:58 38.48500 -118.95136 32924 ft 441 kts 77°
2026-05-05 07:58 38.49463 -118.87381 32924 ft 443 kts 78°
2026-05-05 07:59 38.50421 -118.79615 32933 ft 443 kts 78°
2026-05-05 07:59 38.51371 -118.71878 32945 ft 444 kts 78°
2026-05-05 08:00 38.52325 -118.64065 32937 ft 446 kts 78°
2026-05-05 08:00 38.53275 -118.56236 32942 ft 446 kts 78°
2026-05-05 08:01 38.54222 -118.48387 32941 ft 447 kts 78°
2026-05-05 08:01 38.55165 -118.40523 32926 ft 449 kts 78°
2026-05-05 08:02 38.56106 -118.32633 32899 ft 449 kts 79°
2026-05-05 08:02 38.57044 -118.24733 32892 ft 450 kts 79°
2026-05-05 08:03 38.57971 -118.16875 32886 ft 450 kts 79°
2026-05-05 08:03 38.58903 -118.08943 32890 ft 451 kts 79°
2026-05-05 08:04 38.59832 -118.01002 32874 ft 452 kts 79°
2026-05-05 08:04 38.60756 -117.93041 32881 ft 453 kts 79°
2026-05-05 08:05 38.61675 -117.85079 32881 ft 453 kts 79°
2026-05-05 08:05 38.62590 -117.77104 32883 ft 453 kts 79°
2026-05-05 08:06 38.63498 -117.69134 32876 ft 453 kts 79°
2026-05-05 08:06 38.64396 -117.61205 32877 ft 452 kts 80°
2026-05-05 08:07 38.65292 -117.53256 32873 ft 451 kts 80°
2026-05-05 08:07 38.66181 -117.45304 32848 ft 451 kts 80°
2026-05-05 08:08 38.67067 -117.37341 32871 ft 452 kts 80°
2026-05-05 08:08 38.67949 -117.29362 32855 ft 454 kts 80°
2026-05-05 08:09 38.69053 -117.21400 32865 ft 455 kts 77°
2026-05-05 08:09 38.70311 -117.13450 32847 ft 456 kts 77°
2026-05-05 08:10 38.71552 -117.05482 32855 ft 457 kts 78°
2026-05-05 08:10 38.72753 -116.97522 32854 ft 459 kts 78°
2026-05-05 08:11 38.73947 -116.89475 32868 ft 460 kts 78°
2026-05-05 08:11 38.75140 -116.81387 32847 ft 463 kts 79°
2026-05-05 08:12 38.76335 -116.73247 32846 ft 466 kts 79°
2026-05-05 08:12 38.77533 -116.65051 32851 ft 468 kts 79°
2026-05-05 08:13 38.78728 -116.56833 32845 ft 469 kts 79°
2026-05-05 08:13 38.79913 -116.48638 32844 ft 471 kts 80°
2026-05-05 08:14 38.81102 -116.40378 32845 ft 472 kts 80°
2026-05-05 08:14 38.82289 -116.32089 32840 ft 473 kts 80°
2026-05-05 08:15 38.83470 -116.23794 32825 ft 473 kts 80°
2026-05-05 08:15 38.84650 -116.15473 32840 ft 475 kts 80°
2026-05-05 08:16 38.85827 -116.07117 32831 ft 476 kts 81°
2026-05-05 08:16 38.86995 -115.98779 32820 ft 477 kts 81°
2026-05-05 08:17 38.88166 -115.90383 32808 ft 478 kts 81°
2026-05-05 08:17 38.89334 -115.81957 32818 ft 480 kts 81°
2026-05-05 08:18 38.90491 -115.73561 32822 ft 481 kts 81°
2026-05-05 08:18 38.91653 -115.65086 32816 ft 482 kts 81°
2026-05-05 08:19 38.92811 -115.56596 32817 ft 483 kts 82°
2026-05-05 08:19 38.93969 -115.48052 32815 ft 485 kts 82°
2026-05-05 08:20 38.95122 -115.39495 32815 ft 487 kts 82°
2026-05-05 08:20 38.96273 -115.30909 32796 ft 488 kts 82°
2026-05-05 08:21 38.97413 -115.22358 32807 ft 489 kts 82°
2026-05-05 08:21 38.98556 -115.13724 32808 ft 490 kts 82°
2026-05-05 08:22 38.99696 -115.05066 32817 ft 491 kts 82°
2026-05-05 08:22 39.00824 -114.96453 32822 ft 491 kts 82°
2026-05-05 08:23 39.01954 -114.87773 32857 ft 492 kts 83°
2026-05-05 08:23 39.03079 -114.79071 32852 ft 494 kts 83°
2026-05-05 08:24 39.04200 -114.70353 32856 ft 494 kts 83°
2026-05-05 08:24 39.05314 -114.61631 32842 ft 494 kts 83°
2026-05-05 08:25 39.06424 -114.52894 32816 ft 494 kts 83°
2026-05-05 08:25 39.07525 -114.44173 32800 ft 494 kts 83°
2026-05-05 08:26 39.08618 -114.35456 32784 ft 493 kts 83°
2026-05-05 08:26 39.09706 -114.26727 32800 ft 493 kts 83°
2026-05-05 08:27 39.10787 -114.17996 32805 ft 494 kts 83°
2026-05-05 08:27 39.11856 -114.09304 32800 ft 495 kts 83°
2026-05-05 08:28 39.12930 -114.00529 32787 ft 496 kts 83°
2026-05-05 08:28 39.13997 -113.91743 32799 ft 497 kts 84°
2026-05-05 08:29 39.14881 -113.84429 32795 ft 498 kts 84°
2026-05-05 08:30 39.16468 -113.71185 32766 ft 499 kts 84°
2026-05-05 08:30 39.17521 -113.62318 32780 ft 500 kts 84°
2026-05-05 08:31 39.18569 -113.53449 32793 ft 501 kts 84°
2026-05-05 08:31 39.19612 -113.44556 32789 ft 501 kts 84°
2026-05-05 08:32 39.20643 -113.35705 32763 ft 502 kts 84°
2026-05-05 08:32 39.21674 -113.26787 32787 ft 503 kts 84°
2026-05-05 08:33 39.22701 -113.17854 32788 ft 504 kts 84°
2026-05-05 08:33 39.23722 -113.08901 32748 ft 504 kts 84°
2026-05-05 08:34 39.24739 -112.99931 32781 ft 505 kts 84°
2026-05-05 08:34 39.25750 -112.90945 32780 ft 506 kts 84°
2026-05-05 08:35 39.26755 -112.81942 32781 ft 507 kts 84°
2026-05-05 08:35 39.27748 -112.72987 32769 ft 508 kts 84°
2026-05-05 08:36 39.28742 -112.63965 32785 ft 508 kts 84°
2026-05-05 08:36 39.29733 -112.54910 32790 ft 509 kts 84°
2026-05-05 08:37 39.31283 -112.45951 32783 ft 513 kts 73°
2026-05-05 08:37 39.33602 -112.37216 32786 ft 514 kts 72°
2026-05-05 08:38 39.35931 -112.28470 32806 ft 515 kts 73°
2026-05-05 08:38 39.38207 -112.19745 32809 ft 516 kts 73°
2026-05-05 08:39 39.40473 -112.10938 32802 ft 515 kts 73°
2026-05-05 08:39 39.42729 -112.02119 32809 ft 516 kts 73°
2026-05-05 08:40 39.44982 -111.93291 32814 ft 517 kts 73°
2026-05-05 08:40 39.47223 -111.84487 32815 ft 518 kts 73°
2026-05-05 08:41 39.49472 -111.75619 32810 ft 519 kts 73°
2026-05-05 08:41 39.51718 -111.66726 32817 ft 519 kts 73°
2026-05-05 08:42 39.53961 -111.57819 32826 ft 519 kts 73°
2026-05-05 08:42 39.56196 -111.48911 32829 ft 520 kts 73°
2026-05-05 08:43 39.58427 -111.39983 32842 ft 520 kts 73°
2026-05-05 08:43 39.60638 -111.31103 32845 ft 521 kts 73°
2026-05-05 08:44 39.62857 -111.22155 32839 ft 520 kts 73°
2026-05-05 08:44 39.65064 -111.13223 32851 ft 520 kts 73°
2026-05-05 08:45 39.67267 -111.04272 32880 ft 521 kts 73°
2026-05-05 08:45 39.69471 -110.95288 32905 ft 522 kts 73°
2026-05-05 08:46 39.71671 -110.86287 32909 ft 524 kts 73°
2026-05-05 08:46 39.73856 -110.77307 32911 ft 525 kts 73°
2026-05-05 08:47 39.76052 -110.68251 32895 ft 526 kts 73°
2026-05-05 08:47 39.78249 -110.59157 32812 ft 527 kts 73°
2026-05-05 08:48 39.80438 -110.50058 32812 ft 527 kts 73°
2026-05-05 08:48 39.82622 -110.40945 32784 ft 528 kts 73°
2026-05-05 08:49 39.84800 -110.31822 32782 ft 528 kts 73°
2026-05-05 08:49 39.86974 -110.22686 32783 ft 528 kts 73°
2026-05-05 08:50 39.89140 -110.13540 32770 ft 528 kts 73°
2026-05-05 08:50 39.91286 -110.04443 32757 ft 529 kts 73°
2026-05-05 08:51 39.93444 -109.95259 32759 ft 529 kts 73°
2026-05-05 08:51 39.95595 -109.86071 32757 ft 530 kts 73°
2026-05-05 08:52 39.97741 -109.76865 32760 ft 530 kts 73°
2026-05-05 08:52 39.99870 -109.67697 32755 ft 532 kts 73°
2026-05-05 08:53 40.02008 -109.58454 32761 ft 533 kts 73°
2026-05-05 08:53 40.04141 -109.49193 32758 ft 533 kts 73°
2026-05-05 08:54 40.06271 -109.39906 32750 ft 535 kts 73°
2026-05-05 08:54 40.08403 -109.30573 32764 ft 536 kts 73°
2026-05-05 08:55 40.10516 -109.21287 32774 ft 537 kts 73°
2026-05-05 08:55 40.12642 -109.11901 32776 ft 538 kts 73°
2026-05-05 08:56 40.14759 -109.02515 32777 ft 539 kts 73°
2026-05-05 08:56 40.16860 -108.93163 32780 ft 539 kts 73°
2026-05-05 08:57 40.18966 -108.83752 32792 ft 539 kts 73°
2026-05-05 08:57 40.21064 -108.74337 32781 ft 539 kts 73°
2026-05-05 08:58 40.23153 -108.64919 32798 ft 539 kts 73°
2026-05-05 08:58 40.25224 -108.55541 32800 ft 539 kts 73°
2026-05-05 08:59 40.27301 -108.46099 32801 ft 540 kts 73°
2026-05-05 08:59 40.29382 -108.36592 32824 ft 540 kts 73°
2026-05-05 09:00 40.31431 -108.27194 32801 ft 538 kts 73°
2026-05-05 09:00 40.33477 -108.17768 32805 ft 536 kts 73°
2026-05-05 09:01 40.35502 -108.08402 32812 ft 535 kts 73°
2026-05-05 09:01 40.37523 -107.99013 32802 ft 534 kts 74°
2026-05-05 09:02 40.39533 -107.89629 32811 ft 533 kts 74°
2026-05-05 09:02 40.41534 -107.80251 32867 ft 534 kts 74°
2026-05-05 09:03 40.43530 -107.70850 32897 ft 534 kts 74°
2026-05-05 09:03 40.45524 -107.61426 32917 ft 536 kts 74°
2026-05-05 09:04 40.47498 -107.52044 32917 ft 537 kts 74°
2026-05-05 09:04 40.49481 -107.42584 32916 ft 537 kts 74°
2026-05-05 09:05 40.51465 -107.33080 32963 ft 538 kts 74°
2026-05-05 09:05 40.53834 -107.23730 32959 ft 538 kts 68°
2026-05-05 09:06 40.56498 -107.14577 32953 ft 538 kts 68°
2026-05-05 09:06 40.59167 -107.05373 32907 ft 538 kts 68°
2026-05-05 09:07 40.61798 -106.96138 32887 ft 539 kts 69°
2026-05-05 09:07 40.64411 -106.86878 32933 ft 539 kts 69°
2026-05-05 09:08 40.67016 -106.77608 32912 ft 540 kts 69°
2026-05-05 09:08 40.69600 -106.68385 32900 ft 540 kts 69°
2026-05-05 09:09 40.72199 -106.59087 32855 ft 540 kts 69°
2026-05-05 09:09 40.74789 -106.49787 32838 ft 540 kts 69°
2026-05-05 09:10 40.77367 -106.40492 32852 ft 540 kts 69°
2026-05-05 09:10 40.79944 -106.31165 32853 ft 541 kts 69°
2026-05-05 09:11 40.82518 -106.21815 32850 ft 542 kts 69°
2026-05-05 09:11 40.85072 -106.12505 32882 ft 543 kts 69°
2026-05-05 09:12 40.87641 -106.03106 32842 ft 543 kts 69°
2026-05-05 09:12 40.90192 -105.93740 32860 ft 541 kts 69°
2026-05-05 09:13 40.92734 -105.84367 32865 ft 542 kts 69°
2026-05-05 09:13 40.95271 -105.74976 32870 ft 541 kts 69°
2026-05-05 09:14 40.97798 -105.65590 32878 ft 542 kts 69°
2026-05-05 09:14 41.00327 -105.56164 32896 ft 544 kts 69°
2026-05-05 09:15 41.02857 -105.46695 32926 ft 546 kts 69°
2026-05-05 09:15 41.05391 -105.37174 32921 ft 549 kts 69°
2026-05-05 09:16 41.07909 -105.27674 32965 ft 550 kts 69°
2026-05-05 09:16 41.10445 -105.18073 32980 ft 552 kts 69°
2026-05-05 09:17 41.12549 -105.10077 32961 ft 552 kts 69°
2026-05-05 09:17 41.15074 -105.00446 32969 ft 552 kts 69°
2026-05-05 09:18 41.17590 -104.90810 33034 ft 552 kts 69°
2026-05-05 09:18 41.20097 -104.81172 33020 ft 552 kts 69°
2026-05-05 09:19 41.22548 -104.71508 33015 ft 552 kts 71°
2026-05-05 09:19 41.24841 -104.61756 33005 ft 552 kts 71°
2026-05-05 09:20 41.27099 -104.51996 32995 ft 552 kts 71°
2026-05-05 09:20 41.29374 -104.42238 32991 ft 551 kts 71°
2026-05-05 09:21 41.31649 -104.32516 32970 ft 549 kts 71°
2026-05-05 09:21 41.33893 -104.22893 32976 ft 546 kts 71°
2026-05-05 09:22 41.36137 -104.13219 32967 ft 546 kts 71°
2026-05-05 09:22 41.38371 -104.03538 32985 ft 546 kts 71°
2026-05-05 09:23 41.40586 -103.93901 32989 ft 548 kts 71°
2026-05-05 09:23 41.42811 -103.84174 33016 ft 549 kts 71°
2026-05-05 09:24 41.45034 -103.74418 32984 ft 550 kts 71°
2026-05-05 09:24 41.47247 -103.64658 32984 ft 550 kts 71°
2026-05-05 09:25 41.49456 -103.54876 32964 ft 550 kts 71°
2026-05-05 09:25 41.51641 -103.45155 32959 ft 551 kts 71°
2026-05-05 09:26 41.53834 -103.35358 32965 ft 551 kts 71°
2026-05-05 09:26 41.56020 -103.25547 32951 ft 552 kts 71°
2026-05-05 09:27 41.58202 -103.15710 32947 ft 552 kts 71°
2026-05-05 09:27 41.60378 -103.05853 32944 ft 552 kts 71°
2026-05-05 09:28 41.62530 -102.96064 32933 ft 552 kts 71°
2026-05-05 09:28 41.64690 -102.86196 32936 ft 552 kts 72°
2026-05-05 09:29 41.66837 -102.76335 32944 ft 552 kts 72°
2026-05-05 09:29 41.68975 -102.66471 32931 ft 552 kts 72°
2026-05-05 09:30 41.71103 -102.56606 32935 ft 551 kts 72°
2026-05-05 09:30 41.73221 -102.46740 32956 ft 551 kts 72°
2026-05-05 09:31 41.75317 -102.36935 32957 ft 550 kts 72°
2026-05-05 09:31 41.77413 -102.27084 32938 ft 549 kts 72°
2026-05-05 09:32 41.79496 -102.17247 32940 ft 548 kts 72°
2026-05-05 09:32 41.81567 -102.07425 32941 ft 547 kts 72°
2026-05-05 09:33 41.83630 -101.97593 32953 ft 547 kts 72°
2026-05-05 09:33 41.85671 -101.87817 32945 ft 548 kts 72°
2026-05-05 09:34 41.87719 -101.77961 32942 ft 548 kts 72°
2026-05-05 09:34 41.89760 -101.68094 32947 ft 549 kts 72°
2026-05-05 09:35 41.91796 -101.58202 32949 ft 550 kts 72°
2026-05-05 09:35 41.94838 -101.43340 32950 ft 550 kts 72°
2026-05-05 09:36 41.96856 -101.33413 32947 ft 551 kts 73°
2026-05-05 09:36 41.98857 -101.23529 32947 ft 551 kts 73°
2026-05-05 09:37 42.00862 -101.13571 32948 ft 552 kts 73°
2026-05-05 09:37 42.02862 -101.03597 32953 ft 552 kts 73°
2026-05-05 09:38 42.04852 -100.93615 32951 ft 553 kts 73°
2026-05-05 09:38 42.06836 -100.83616 32956 ft 553 kts 73°
2026-05-05 09:39 42.08811 -100.73609 32959 ft 553 kts 73°
2026-05-05 09:39 42.10767 -100.63654 32960 ft 553 kts 73°
2026-05-05 09:40 42.12728 -100.53623 32974 ft 553 kts 73°
2026-05-05 09:40 42.14683 -100.43568 32955 ft 555 kts 73°
2026-05-05 09:41 42.16633 -100.33489 32965 ft 556 kts 73°
2026-05-05 09:41 42.18578 -100.23382 32957 ft 557 kts 73°
2026-05-05 09:42 42.20503 -100.13330 32964 ft 558 kts 73°
2026-05-05 09:42 42.22437 -100.03177 32951 ft 559 kts 73°
2026-05-05 09:43 42.24363 -99.93013 32950 ft 559 kts 73°
2026-05-05 09:43 42.26284 -99.82821 32957 ft 559 kts 73°
2026-05-05 09:44 42.28192 -99.72642 32945 ft 559 kts 73°
2026-05-05 09:44 42.30094 -99.62447 32939 ft 559 kts 74°
2026-05-05 09:45 42.31985 -99.52251 32949 ft 559 kts 74°
2026-05-05 09:45 42.33856 -99.42110 32947 ft 559 kts 74°
2026-05-05 09:46 42.35727 -99.31916 32948 ft 559 kts 74°
2026-05-05 09:46 42.37590 -99.21707 32944 ft 559 kts 74°
2026-05-05 09:47 42.39447 -99.11477 32949 ft 559 kts 74°
2026-05-05 09:47 42.41281 -99.01315 32958 ft 559 kts 74°
2026-05-05 09:48 42.43119 -98.91078 32955 ft 559 kts 74°
2026-05-05 09:48 42.44947 -98.80835 32964 ft 559 kts 74°
2026-05-05 09:49 42.46771 -98.70576 32979 ft 560 kts 74°
2026-05-05 09:49 42.49050 -98.60518 32968 ft 557 kts 68°
2026-05-05 09:50 42.51597 -98.50598 32959 ft 557 kts 68°
2026-05-05 09:50 42.54119 -98.40717 32943 ft 558 kts 68°
2026-05-05 09:51 42.56614 -98.30751 32956 ft 558 kts 69°
2026-05-05 09:51 42.59087 -98.20758 32942 ft 559 kts 69°
2026-05-05 09:52 42.61551 -98.10754 32959 ft 559 kts 69°
2026-05-05 09:52 42.64012 -98.00729 32954 ft 559 kts 69°
2026-05-05 09:53 42.66468 -97.90694 32958 ft 560 kts 69°
2026-05-05 09:53 42.68917 -97.80644 32965 ft 560 kts 69°
2026-05-05 09:54 42.71343 -97.70639 32966 ft 561 kts 69°
2026-05-05 09:54 42.73777 -97.60558 32962 ft 561 kts 69°
2026-05-05 09:55 42.76203 -97.50465 32962 ft 561 kts 69°
2026-05-05 09:55 42.78624 -97.40353 33000 ft 562 kts 70°
2026-05-05 09:56 42.81041 -97.30207 32974 ft 564 kts 70°
2026-05-05 09:56 42.83459 -97.20016 32946 ft 566 kts 70°
2026-05-05 09:57 42.85872 -97.09793 32938 ft 567 kts 70°
2026-05-05 09:57 42.88281 -96.99545 32936 ft 568 kts 70°
2026-05-05 09:58 42.90666 -96.89351 32947 ft 568 kts 70°
2026-05-05 09:58 42.93059 -96.79074 32940 ft 568 kts 70°
2026-05-05 09:59 42.95441 -96.68798 32923 ft 568 kts 70°
2026-05-05 09:59 42.97816 -96.58507 32924 ft 567 kts 70°
2026-05-05 10:00 43.00177 -96.48226 32914 ft 567 kts 70°
2026-05-05 10:00 43.02513 -96.38007 32922 ft 567 kts 70°
2026-05-05 10:01 43.04856 -96.27710 32917 ft 567 kts 70°
2026-05-05 10:01 43.07191 -96.17402 32925 ft 569 kts 70°
2026-05-05 10:02 43.09531 -96.07024 32943 ft 572 kts 70°
2026-05-05 10:02 43.11874 -95.96582 32897 ft 575 kts 70°
2026-05-05 10:03 43.14216 -95.86092 32894 ft 576 kts 70°
2026-05-05 10:03 43.16550 -95.75583 32895 ft 577 kts 70°
2026-05-05 10:04 43.18485 -95.66830 32898 ft 577 kts 70°
2026-05-05 10:04 43.21179 -95.54585 32904 ft 577 kts 70°
2026-05-05 10:05 43.23484 -95.44059 32906 ft 576 kts 70°
2026-05-05 10:05 43.25407 -95.35233 32903 ft 576 kts 70°
2026-05-05 10:06 43.27693 -95.24695 32898 ft 575 kts 70°
2026-05-05 10:06 43.29964 -95.14175 32918 ft 575 kts 70°
2026-05-05 10:07 43.32211 -95.03713 32957 ft 575 kts 70°
2026-05-05 10:07 43.34473 -94.93132 32898 ft 578 kts 70°
2026-05-05 10:08 43.36739 -94.82475 32886 ft 581 kts 70°
2026-05-05 10:08 43.38997 -94.71798 32884 ft 583 kts 70°
2026-05-05 10:09 43.41253 -94.61076 32894 ft 584 kts 70°
2026-05-05 10:09 43.43501 -94.50335 32903 ft 584 kts 70°
2026-05-05 10:10 43.45738 -94.39593 32891 ft 584 kts 71°
2026-05-05 10:10 43.47964 -94.28845 32892 ft 583 kts 71°
2026-05-05 10:11 43.50163 -94.18173 32890 ft 582 kts 71°
2026-05-05 10:11 43.52364 -94.07439 32887 ft 582 kts 71°
2026-05-05 10:12 43.54556 -93.96687 32887 ft 582 kts 71°
2026-05-05 10:12 43.56737 -93.85934 32943 ft 582 kts 71°
2026-05-05 10:13 43.58898 -93.75228 32880 ft 583 kts 71°
2026-05-05 10:13 43.61063 -93.64437 32862 ft 583 kts 71°
2026-05-05 10:14 43.63219 -93.53630 32854 ft 583 kts 71°
2026-05-05 10:14 43.65364 -93.42823 32854 ft 583 kts 71°
2026-05-05 10:15 43.67497 -93.32018 32852 ft 583 kts 71°
2026-05-05 10:15 43.69619 -93.21208 32853 ft 583 kts 71°
2026-05-05 10:16 43.71720 -93.10450 32856 ft 583 kts 71°
2026-05-05 10:16 43.73825 -92.99611 32843 ft 583 kts 72°
2026-05-05 10:17 43.75916 -92.88783 32856 ft 583 kts 72°
2026-05-05 10:17 43.77998 -92.77936 32854 ft 583 kts 72°
2026-05-05 10:18 43.80071 -92.67081 32912 ft 583 kts 72°
2026-05-05 10:18 43.82125 -92.56265 32850 ft 585 kts 72°
2026-05-05 10:19 43.84185 -92.45353 32847 ft 585 kts 72°
2026-05-05 10:19 43.86234 -92.34432 32845 ft 586 kts 72°
2026-05-05 10:20 43.88274 -92.23501 32859 ft 586 kts 72°
2026-05-05 10:20 43.90309 -92.12533 32846 ft 586 kts 72°
2026-05-05 10:21 43.92314 -92.01662 32848 ft 586 kts 72°
2026-05-05 10:21 43.94321 -91.90720 32816 ft 585 kts 72°
2026-05-05 10:22 43.96318 -91.79763 32839 ft 585 kts 73°
2026-05-05 10:22 43.98302 -91.68817 32843 ft 585 kts 73°
2026-05-05 10:23 44.00277 -91.57854 32846 ft 585 kts 73°
2026-05-05 10:23 44.02243 -91.46877 32898 ft 586 kts 73°
2026-05-05 10:24 44.04190 -91.35937 32824 ft 587 kts 73°
2026-05-05 10:24 44.06138 -91.24926 32832 ft 586 kts 73°
2026-05-05 10:25 44.08072 -91.13924 32815 ft 585 kts 73°
2026-05-05 10:25 44.09996 -91.02918 32834 ft 585 kts 73°
2026-05-05 10:26 44.11907 -90.91914 32825 ft 585 kts 74°
2026-05-05 10:26 44.13810 -90.80898 32835 ft 585 kts 74°
2026-05-05 10:27 44.15702 -90.69868 32812 ft 586 kts 74°
2026-05-05 10:27 44.17584 -90.58823 32813 ft 586 kts 74°
2026-05-05 10:28 44.19448 -90.47821 32804 ft 587 kts 74°
2026-05-05 10:28 44.21313 -90.36742 32799 ft 587 kts 75°
2026-05-05 10:29 44.23170 -90.25644 32839 ft 588 kts 75°
2026-05-05 10:29 44.25020 -90.14513 32792 ft 588 kts 75°
2026-05-05 10:30 44.26855 -90.03398 32801 ft 587 kts 75°
2026-05-05 10:30 44.28664 -89.92367 32782 ft 587 kts 75°
2026-05-05 10:31 44.30474 -89.81262 32804 ft 587 kts 75°
2026-05-05 10:31 44.32277 -89.70131 32792 ft 588 kts 75°
2026-05-05 10:32 44.34071 -89.58977 32796 ft 588 kts 75°
2026-05-05 10:32 44.35856 -89.47805 32793 ft 589 kts 75°
2026-05-05 10:33 44.37631 -89.36625 32793 ft 589 kts 75°
2026-05-05 10:33 44.39383 -89.25503 32786 ft 589 kts 75°
2026-05-05 10:34 44.41138 -89.14298 32776 ft 590 kts 76°
2026-05-05 10:34 44.42883 -89.03077 32854 ft 590 kts 76°
2026-05-05 10:35 44.44616 -88.91853 32815 ft 589 kts 76°
2026-05-05 10:35 44.46334 -88.80643 32772 ft 588 kts 76°
2026-05-05 10:36 44.48037 -88.69465 32789 ft 587 kts 76°
2026-05-05 10:36 44.49719 -88.58346 32791 ft 587 kts 76°
2026-05-05 10:37 44.51399 -88.47153 32761 ft 587 kts 76°
2026-05-05 10:37 44.53072 -88.35933 32767 ft 588 kts 76°
2026-05-05 10:38 44.54737 -88.24698 32778 ft 588 kts 77°
2026-05-05 10:38 44.55971 -88.13351 32775 ft 589 kts 85°
2026-05-05 10:39 44.56527 -88.01877 32757 ft 590 kts 86°
2026-05-05 10:39 44.57050 -87.90395 32753 ft 590 kts 86°
2026-05-05 10:40 44.57616 -87.78913 32752 ft 590 kts 86°
2026-05-05 10:40 44.58201 -87.67425 32746 ft 590 kts 86°
2026-05-05 10:41 44.58771 -87.56019 32750 ft 590 kts 86°
2026-05-05 10:41 44.59327 -87.44537 32755 ft 591 kts 86°
2026-05-05 10:42 44.60136 -87.27288 32745 ft 589 kts 87°
2026-05-05 10:43 44.60660 -87.15823 32757 ft 588 kts 87°
2026-05-05 10:43 44.61173 -87.04359 32769 ft 588 kts 87°
2026-05-05 10:44 44.61675 -86.92891 32728 ft 588 kts 87°
2026-05-05 10:44 44.62164 -86.81441 32760 ft 587 kts 87°
2026-05-05 10:45 44.62638 -86.70087 32750 ft 587 kts 88°
2026-05-05 10:45 44.63103 -86.58648 32745 ft 587 kts 88°
2026-05-05 10:46 44.63557 -86.47222 32741 ft 585 kts 88°
2026-05-05 10:46 44.63999 -86.35813 32739 ft 584 kts 88°
2026-05-05 10:47 44.64428 -86.24427 32750 ft 583 kts 88°
2026-05-05 10:47 44.64846 -86.13049 32737 ft 583 kts 88°
2026-05-05 10:48 44.65249 -86.01755 32744 ft 582 kts 88°
2026-05-05 10:48 44.65644 -85.90402 32743 ft 581 kts 88°
2026-05-05 10:49 44.66026 -85.79050 32704 ft 581 kts 88°
2026-05-05 10:49 44.66399 -85.67696 32705 ft 581 kts 89°
2026-05-05 10:50 44.67335 -85.56433 32701 ft 582 kts 77°
2026-05-05 10:50 44.69592 -85.45536 32702 ft 578 kts 65°
2026-05-05 10:51 44.72813 -85.35216 32701 ft 576 kts 62°
2026-05-05 10:51 44.76096 -85.24927 32707 ft 577 kts 63°
2026-05-05 10:52 44.79307 -85.14647 32711 ft 577 kts 63°
2026-05-05 10:52 44.82499 -85.04250 32676 ft 578 kts 63°
2026-05-05 10:53 44.85665 -84.93866 32701 ft 576 kts 64°
2026-05-05 10:53 44.88820 -84.83492 32708 ft 575 kts 64°
2026-05-05 10:54 44.91954 -84.73162 32665 ft 576 kts 64°
2026-05-05 10:54 44.95098 -84.62757 32655 ft 575 kts 64°
2026-05-05 10:55 44.97700 -84.54115 32680 ft 574 kts 64°
2026-05-05 10:55 45.00817 -84.43719 32674 ft 574 kts 64°
2026-05-05 10:56 45.03931 -84.33295 32798 ft 578 kts 64°
2026-05-05 10:56 45.05490 -84.28057 33165 ft 577 kts 65°
2026-05-05 10:56 45.07039 -84.22839 33556 ft 573 kts 65°
2026-05-05 10:56 45.08571 -84.17665 34089 ft 567 kts 65°
2026-05-05 10:57 45.10089 -84.12529 34451 ft 564 kts 65°
2026-05-05 10:57 45.11604 -84.07398 34595 ft 565 kts 65°
2026-05-05 10:57 45.13122 -84.02250 34648 ft 568 kts 65°
2026-05-05 10:58 45.16157 -83.91920 34661 ft 566 kts 65°
2026-05-05 10:58 45.19165 -83.81638 34638 ft 563 kts 66°
2026-05-05 10:59 45.22145 -83.71407 34700 ft 560 kts 66°
2026-05-05 10:59 45.25098 -83.61232 34669 ft 561 kts 66°
2026-05-05 11:00 45.28065 -83.50964 34668 ft 562 kts 66°
2026-05-05 11:00 45.31025 -83.40676 34644 ft 563 kts 66°
2026-05-05 11:01 45.33982 -83.30356 34688 ft 564 kts 66°
2026-05-05 11:01 45.36935 -83.20008 34687 ft 565 kts 67°
2026-05-05 11:02 45.39866 -83.09694 34696 ft 566 kts 67°
2026-05-05 11:02 45.42805 -82.99305 34660 ft 566 kts 67°
2026-05-05 11:03 45.45729 -82.88928 34682 ft 563 kts 68°
2026-05-05 11:03 45.48632 -82.78577 34670 ft 562 kts 68°
2026-05-05 11:04 45.51520 -82.68238 34675 ft 560 kts 68°
2026-05-05 11:04 45.54392 -82.57915 34644 ft 560 kts 68°
2026-05-05 11:05 45.57251 -82.47597 34664 ft 559 kts 69°
2026-05-05 11:05 45.60097 -82.37274 34661 ft 558 kts 69°
2026-05-05 11:06 45.62922 -82.26986 34658 ft 559 kts 69°
2026-05-05 11:06 45.65757 -82.16620 34666 ft 559 kts 69°
2026-05-05 11:07 45.68582 -82.06247 34642 ft 560 kts 70°
2026-05-05 11:07 45.71404 -81.95834 34660 ft 562 kts 70°
2026-05-05 11:08 45.74206 -81.85452 34652 ft 563 kts 70°
2026-05-05 11:08 45.77019 -81.74984 34650 ft 563 kts 70°
2026-05-05 11:09 45.79824 -81.64504 34641 ft 563 kts 70°
2026-05-05 11:09 45.82617 -81.54016 34645 ft 562 kts 70°
2026-05-05 11:10 45.85394 -81.43545 34664 ft 561 kts 70°
2026-05-05 11:10 45.88161 -81.33063 34630 ft 561 kts 70°
2026-05-05 11:11 45.90917 -81.22579 34635 ft 561 kts 71°
2026-05-05 11:11 45.93645 -81.12153 34637 ft 562 kts 71°
2026-05-05 11:12 45.96389 -81.01612 34634 ft 563 kts 71°
2026-05-05 11:12 45.99131 -80.91037 34627 ft 564 kts 71°
2026-05-05 11:13 46.01872 -80.80419 34628 ft 566 kts 72°
2026-05-05 11:13 46.04609 -80.69771 34606 ft 567 kts 72°
2026-05-05 11:14 46.07340 -80.59094 34597 ft 568 kts 72°
2026-05-05 11:14 46.10060 -80.48409 34588 ft 568 kts 72°
2026-05-05 11:15 46.12753 -80.37781 34565 ft 568 kts 72°
2026-05-05 11:15 46.15452 -80.27076 34583 ft 568 kts 72°
2026-05-05 11:16 46.18150 -80.16330 34585 ft 569 kts 72°
2026-05-05 11:16 46.20837 -80.05579 34574 ft 569 kts 72°
2026-05-05 11:17 46.23515 -79.94807 34544 ft 569 kts 72°
2026-05-05 11:17 46.26165 -79.84100 34566 ft 569 kts 72°
2026-05-05 11:18 46.28821 -79.73313 34572 ft 570 kts 72°
2026-05-05 11:18 46.31472 -79.62499 34563 ft 570 kts 72°
2026-05-05 11:19 46.34115 -79.51668 34533 ft 570 kts 72°
2026-05-05 11:19 46.36586 -79.40766 34550 ft 568 kts 79°
2026-05-05 11:20 46.38304 -79.29620 34562 ft 566 kts 81°
2026-05-05 11:20 46.39919 -79.18532 34561 ft 566 kts 81°
2026-05-05 11:21 46.41571 -79.07371 34529 ft 566 kts 81°
2026-05-05 11:21 46.43245 -78.96231 34556 ft 565 kts 81°
2026-05-05 11:22 46.44917 -78.85074 34555 ft 565 kts 81°
2026-05-05 11:22 46.46574 -78.73932 34553 ft 565 kts 81°
2026-05-05 11:23 46.48217 -78.62773 34523 ft 565 kts 81°
2026-05-05 11:23 46.49836 -78.51695 34534 ft 564 kts 81°
2026-05-05 11:24 46.51453 -78.40560 34544 ft 563 kts 81°
2026-05-05 11:24 46.53058 -78.29424 34548 ft 563 kts 81°
2026-05-05 11:25 46.54651 -78.18284 34531 ft 562 kts 81°
2026-05-05 11:25 46.56228 -78.07174 34569 ft 561 kts 81°
2026-05-05 11:26 46.57796 -77.96051 34540 ft 562 kts 81°
2026-05-05 11:26 46.59354 -77.84906 34537 ft 562 kts 81°
2026-05-05 11:27 46.60892 -77.73830 34520 ft 562 kts 81°
2026-05-05 11:27 46.62427 -77.62694 34527 ft 561 kts 81°
2026-05-05 11:28 46.63951 -77.51551 34527 ft 561 kts 81°
2026-05-05 11:28 46.65461 -77.40420 34529 ft 560 kts 82°
2026-05-05 11:29 46.66960 -77.29286 34530 ft 560 kts 82°
2026-05-05 11:29 46.68439 -77.18212 34532 ft 560 kts 82°
2026-05-05 11:30 46.69919 -77.07058 34527 ft 561 kts 82°
2026-05-05 11:30 46.71388 -76.95880 34523 ft 561 kts 82°
2026-05-05 11:31 46.72846 -76.84703 34509 ft 560 kts 82°
2026-05-05 11:31 46.74292 -76.73532 34515 ft 560 kts 82°
2026-05-05 11:32 46.75718 -76.62429 34517 ft 560 kts 82°
2026-05-05 11:32 46.77140 -76.51270 34516 ft 559 kts 82°
2026-05-05 11:33 46.78551 -76.40094 34520 ft 559 kts 82°
2026-05-05 11:33 46.79950 -76.28919 34516 ft 559 kts 82°
2026-05-05 11:34 46.81331 -76.17811 34518 ft 559 kts 82°
2026-05-05 11:34 46.82710 -76.06623 34522 ft 560 kts 82°
2026-05-05 11:35 46.84076 -75.95434 34504 ft 560 kts 82°
2026-05-05 11:35 46.85433 -75.84230 34516 ft 559 kts 82°
2026-05-05 11:36 46.86778 -75.73042 34521 ft 559 kts 82°
2026-05-05 11:36 46.88113 -75.61823 34510 ft 559 kts 82°
2026-05-05 11:37 46.89434 -75.50623 34515 ft 559 kts 82°
2026-05-05 11:37 46.90739 -75.39471 34521 ft 560 kts 82°
2026-05-05 11:38 46.92043 -75.28228 34528 ft 561 kts 82°
2026-05-05 11:38 46.93339 -75.16963 34524 ft 561 kts 82°
2026-05-05 11:39 46.94622 -75.05692 34529 ft 561 kts 82°
2026-05-05 11:39 46.95885 -74.94501 34520 ft 560 kts 82°
2026-05-05 11:40 46.97144 -74.83247 34532 ft 559 kts 82°
2026-05-05 11:40 46.98389 -74.72008 34541 ft 558 kts 82°
2026-05-05 11:41 46.99623 -74.60772 34531 ft 557 kts 82°
2026-05-05 11:41 47.00635 -74.51466 34531 ft 556 kts 82°
2026-05-05 11:42 47.02037 -74.38470 34538 ft 554 kts 83°
2026-05-05 11:42 47.03035 -74.29117 34540 ft 554 kts 83°
2026-05-05 11:43 47.04208 -74.18034 34524 ft 553 kts 82°
2026-05-05 11:43 47.05380 -74.06856 34541 ft 553 kts 82°
2026-05-05 11:44 47.06539 -73.95693 34558 ft 553 kts 83°
2026-05-05 11:44 47.07687 -73.84525 34586 ft 554 kts 83°
2026-05-05 11:45 47.08822 -73.73375 34547 ft 555 kts 82°
2026-05-05 11:45 47.09952 -73.62157 34564 ft 556 kts 82°
2026-05-05 11:46 47.11074 -73.50917 34566 ft 556 kts 82°
2026-05-05 11:46 47.12184 -73.39672 34573 ft 557 kts 83°
2026-05-05 11:47 47.13286 -73.28405 34563 ft 557 kts 82°
2026-05-05 11:47 47.14367 -73.17216 34576 ft 556 kts 82°
2026-05-05 11:48 47.15978 -73.00334 34580 ft 555 kts 83°
2026-05-05 11:48 47.17035 -72.89110 34598 ft 555 kts 83°
2026-05-05 11:49 47.18084 -72.77865 34593 ft 555 kts 83°
2026-05-05 11:49 47.19114 -72.66679 34596 ft 555 kts 83°
2026-05-05 11:50 47.20139 -72.55423 34610 ft 555 kts 83°
2026-05-05 11:50 47.21153 -72.44167 34608 ft 555 kts 83°
2026-05-05 11:51 47.22157 -72.32898 34609 ft 555 kts 83°
2026-05-05 11:51 47.23151 -72.21615 34612 ft 555 kts 83°
2026-05-05 11:52 47.24126 -72.10422 34628 ft 554 kts 83°
2026-05-05 11:52 47.25096 -71.99144 34631 ft 555 kts 83°
2026-05-05 11:53 47.26055 -71.87863 34610 ft 555 kts 83°
2026-05-05 11:53 47.26997 -71.76659 34627 ft 554 kts 83°
2026-05-05 11:54 47.27933 -71.65390 34615 ft 553 kts 83°
2026-05-05 11:54 47.28856 -71.54131 34627 ft 553 kts 83°
2026-05-05 11:55 47.29768 -71.42877 34618 ft 552 kts 83°
2026-05-05 11:55 47.30668 -71.31644 34620 ft 551 kts 83°
2026-05-05 11:56 47.31548 -71.20489 34663 ft 550 kts 83°
2026-05-05 11:56 47.32423 -71.09262 34693 ft 550 kts 83°
2026-05-05 11:57 47.33287 -70.98046 34639 ft 551 kts 83°
2026-05-05 11:57 47.34140 -70.86824 34653 ft 550 kts 83°
2026-05-05 11:58 47.34976 -70.75677 34660 ft 550 kts 83°
2026-05-05 11:58 47.35807 -70.64464 34667 ft 550 kts 83°
2026-05-05 11:59 47.36625 -70.53259 34651 ft 549 kts 83°
2026-05-05 11:59 47.37431 -70.42059 34665 ft 548 kts 83°
2026-05-05 12:00 47.38226 -70.30870 34677 ft 548 kts 83°
2026-05-05 12:00 47.39010 -70.19679 34671 ft 548 kts 83°
2026-05-05 12:01 47.39778 -70.08547 34663 ft 548 kts 83°
2026-05-05 12:01 47.40539 -69.97354 34660 ft 548 kts 83°
2026-05-05 12:02 47.41290 -69.86168 34661 ft 548 kts 83°
2026-05-05 12:02 47.42030 -69.74966 34668 ft 548 kts 83°
2026-05-05 12:03 47.42759 -69.63770 34666 ft 548 kts 83°
2026-05-05 12:03 47.43476 -69.52570 34665 ft 546 kts 83°
2026-05-05 12:04 47.44181 -69.41404 34694 ft 546 kts 83°
2026-05-05 12:04 47.44874 -69.30240 34680 ft 545 kts 83°
2026-05-05 12:05 47.45555 -69.19084 34685 ft 544 kts 83°
2026-05-05 12:05 47.46225 -69.07947 34685 ft 543 kts 83°
2026-05-05 12:06 47.46879 -68.96898 34690 ft 542 kts 83°
2026-05-05 12:06 47.47524 -68.85806 34705 ft 541 kts 83°
2026-05-05 12:07 47.48159 -68.74720 34711 ft 541 kts 83°
2026-05-05 12:07 47.48782 -68.63631 34710 ft 541 kts 83°
2026-05-05 12:08 47.49394 -68.52552 34753 ft 541 kts 83°
2026-05-05 12:08 47.49996 -68.41466 34737 ft 541 kts 83°
2026-05-05 12:09 47.50584 -68.30432 34743 ft 540 kts 83°
2026-05-05 12:09 47.51164 -68.19343 34740 ft 540 kts 83°
2026-05-05 12:10 47.51735 -68.08231 34755 ft 540 kts 84°
2026-05-05 12:10 47.52290 -67.97215 34760 ft 540 kts 84°
2026-05-05 12:11 47.52838 -67.86117 34763 ft 541 kts 84°
2026-05-05 12:11 47.53381 -67.75015 34767 ft 541 kts 83°
2026-05-05 12:12 47.54065 -67.63923 34778 ft 540 kts 82°
2026-05-05 12:12 47.54828 -67.52862 34769 ft 539 kts 82°
2026-05-05 12:13 47.55564 -67.41884 34759 ft 539 kts 82°
2026-05-05 12:13 47.56269 -67.30854 34768 ft 538 kts 82°
2026-05-05 12:14 47.56954 -67.19821 34765 ft 537 kts 82°
2026-05-05 12:14 47.57627 -67.08801 34764 ft 536 kts 82°
2026-05-05 12:15 47.58290 -66.97802 34767 ft 536 kts 82°
2026-05-05 12:15 47.58943 -66.86815 34761 ft 535 kts 82°
2026-05-05 12:16 47.59586 -66.75820 34770 ft 536 kts 82°
2026-05-05 12:16 47.60214 -66.64880 34773 ft 536 kts 82°
2026-05-05 12:17 47.60836 -66.53873 34756 ft 536 kts 82°
2026-05-05 12:17 47.61448 -66.42853 34773 ft 536 kts 82°
2026-05-05 12:18 47.62048 -66.31836 34775 ft 536 kts 82°
2026-05-05 12:18 47.62638 -66.20825 34795 ft 536 kts 82°
2026-05-05 12:19 47.63218 -66.09807 34786 ft 536 kts 82°
2026-05-05 12:19 47.63787 -65.98784 34802 ft 536 kts 82°
2026-05-05 12:20 47.64343 -65.87812 34801 ft 536 kts 82°
2026-05-05 12:20 47.64890 -65.76791 34798 ft 535 kts 82°
2026-05-05 12:21 47.65426 -65.65778 34796 ft 534 kts 82°
2026-05-05 12:21 47.65951 -65.54792 34804 ft 533 kts 83°
2026-05-05 12:22 47.66462 -65.43894 34808 ft 533 kts 83°
2026-05-05 12:22 47.66965 -65.32919 34800 ft 533 kts 83°
2026-05-05 12:23 47.67457 -65.21955 34800 ft 533 kts 83°
2026-05-05 12:23 47.67940 -65.10973 34816 ft 533 kts 83°
2026-05-05 12:24 47.68412 -64.99969 34805 ft 533 kts 83°
2026-05-05 12:24 47.68874 -64.88978 34810 ft 533 kts 83°
2026-05-05 12:25 47.69323 -64.78048 34821 ft 534 kts 83°
2026-05-05 12:25 47.69764 -64.67040 34810 ft 534 kts 83°
2026-05-05 12:26 47.70195 -64.56016 34810 ft 535 kts 83°
2026-05-05 12:26 47.70616 -64.44985 34812 ft 535 kts 83°
2026-05-05 12:27 47.71026 -64.33956 34834 ft 535 kts 83°
2026-05-05 12:27 47.71427 -64.22902 34819 ft 536 kts 84°
2026-05-05 12:28 47.71817 -64.11829 34812 ft 537 kts 84°
2026-05-05 12:28 47.72197 -64.00746 34823 ft 537 kts 84°
2026-05-05 12:29 47.72564 -63.89722 34819 ft 538 kts 84°
2026-05-05 12:29 47.72923 -63.78633 34817 ft 538 kts 84°
2026-05-05 12:30 47.73271 -63.67521 34812 ft 538 kts 84°
2026-05-05 12:30 47.73609 -63.56417 34819 ft 538 kts 84°
2026-05-05 12:31 47.73882 -63.47190 34843 ft 538 kts 84°
2026-05-05 12:31 47.74251 -63.34264 34820 ft 538 kts 84°
2026-05-05 12:32 47.74556 -63.23155 34820 ft 537 kts 84°
2026-05-05 12:32 47.74802 -63.13932 34820 ft 537 kts 84°
2026-05-05 12:33 47.75088 -63.02828 34831 ft 537 kts 84°
2026-05-05 12:33 47.75363 -62.91736 34838 ft 536 kts 84°
2026-05-05 12:34 47.75625 -62.80714 34833 ft 536 kts 84°
2026-05-05 12:34 47.75879 -62.69630 34847 ft 536 kts 85°
2026-05-05 12:35 47.76122 -62.58538 34843 ft 536 kts 85°
2026-05-05 12:35 47.76353 -62.47459 34837 ft 537 kts 85°
2026-05-05 12:36 47.76575 -62.36359 34838 ft 537 kts 85°
2026-05-05 12:36 47.76786 -62.25268 34854 ft 537 kts 85°
2026-05-05 12:37 47.76986 -62.14149 34857 ft 538 kts 85°
2026-05-05 12:37 47.77175 -62.03092 34857 ft 538 kts 85°
2026-05-05 12:38 47.77354 -61.91973 34853 ft 538 kts 85°
2026-05-05 12:38 47.77522 -61.80838 34859 ft 539 kts 85°
2026-05-05 12:39 47.77680 -61.69692 34845 ft 539 kts 85°
2026-05-05 12:39 47.77827 -61.58548 34839 ft 539 kts 85°
2026-05-05 12:40 47.77962 -61.47477 34842 ft 539 kts 86°
2026-05-05 12:40 47.78088 -61.36326 34847 ft 538 kts 86°
2026-05-05 12:41 47.78202 -61.25189 34840 ft 538 kts 86°
2026-05-05 12:41 47.78306 -61.14064 34854 ft 538 kts 86°
2026-05-05 12:42 47.78399 -61.02955 34859 ft 537 kts 86°
2026-05-05 12:42 47.78482 -60.91847 34876 ft 537 kts 86°
2026-05-05 12:43 47.78553 -60.80752 34857 ft 535 kts 86°
2026-05-05 12:43 47.78612 -60.69786 34860 ft 533 kts 87°
2026-05-05 12:44 47.78662 -60.58783 34864 ft 531 kts 87°
2026-05-05 12:44 47.78701 -60.47816 34862 ft 530 kts 87°
2026-05-05 12:45 47.78730 -60.36847 34871 ft 529 kts 87°
2026-05-05 12:45 47.78749 -60.25889 34872 ft 530 kts 87°
2026-05-05 12:46 47.78757 -60.14921 34877 ft 530 kts 88°
2026-05-05 12:46 47.78754 -60.03942 34878 ft 532 kts 88°
2026-05-05 12:47 47.78742 -59.93029 34882 ft 532 kts 88°
2026-05-05 12:47 47.78717 -59.82023 34887 ft 532 kts 88°
2026-05-05 12:48 47.78683 -59.70996 34887 ft 532 kts 88°
2026-05-05 12:48 47.78638 -59.59999 34896 ft 532 kts 89°
2026-05-05 12:49 47.78583 -59.48997 34885 ft 531 kts 89°
2026-05-05 12:49 47.78518 -59.38094 34894 ft 530 kts 89°
2026-05-05 12:50 47.78442 -59.27146 34920 ft 529 kts 89°
2026-05-05 12:50 47.78356 -59.16196 34908 ft 529 kts 89°
2026-05-05 12:51 47.78260 -59.05257 34890 ft 529 kts 89°
2026-05-05 12:51 47.78153 -58.94318 34890 ft 530 kts 90°
2026-05-05 12:52 47.78036 -58.83348 34903 ft 530 kts 90°
2026-05-05 12:52 47.77908 -58.72380 34885 ft 531 kts 90°
2026-05-05 12:53 47.77769 -58.61436 34885 ft 532 kts 90°
2026-05-05 12:53 47.77620 -58.50426 34883 ft 533 kts 90°
2026-05-05 12:54 47.77376 -58.33897 34889 ft 533 kts 90°
2026-05-05 12:55 47.77200 -58.22865 34884 ft 533 kts 90°
2026-05-05 12:55 47.77013 -58.11846 34887 ft 532 kts 90°
2026-05-05 12:56 47.76818 -58.00921 34866 ft 532 kts 91°
2026-05-05 12:56 47.76610 -57.89930 34876 ft 532 kts 91°
2026-05-05 12:57 47.76393 -57.78945 34876 ft 532 kts 91°
2026-05-05 12:57 47.76165 -57.67945 34870 ft 532 kts 91°
2026-05-05 12:58 47.75926 -57.56957 34885 ft 532 kts 91°
2026-05-05 12:58 47.75677 -57.45968 34880 ft 532 kts 91°
2026-05-05 12:59 47.75417 -57.34981 34861 ft 532 kts 91°
2026-05-05 12:59 47.75149 -57.24081 34880 ft 531 kts 92°
2026-05-05 13:00 47.74726 -57.07625 34844 ft 531 kts 92°
2026-05-05 13:01 47.74124 -56.85707 34856 ft 531 kts 92°
2026-05-05 13:01 47.73808 -56.74737 34857 ft 531 kts 92°
2026-05-05 13:02 47.73480 -56.63770 34832 ft 531 kts 92°
2026-05-05 13:02 47.73142 -56.52801 34830 ft 531 kts 93°
2026-05-05 13:03 47.72795 -56.41848 34807 ft 531 kts 93°
2026-05-05 13:03 47.72437 -56.30899 34804 ft 530 kts 93°
2026-05-05 13:04 47.72071 -56.20027 34805 ft 530 kts 93°
2026-05-05 13:04 47.71692 -56.09064 34794 ft 530 kts 94°
2026-05-05 13:05 47.71303 -55.98144 34802 ft 530 kts 94°
2026-05-05 13:05 47.70905 -55.87232 34825 ft 529 kts 94°
2026-05-05 13:06 47.70496 -55.76311 34815 ft 529 kts 94°
2026-05-05 13:06 47.70078 -55.65447 34807 ft 529 kts 94°
2026-05-05 13:07 47.69650 -55.54545 34828 ft 529 kts 94°
2026-05-05 13:07 47.69210 -55.43650 34836 ft 528 kts 94°
2026-05-05 13:08 47.68760 -55.32756 34866 ft 528 kts 94°
2026-05-05 13:08 47.68300 -55.21858 34865 ft 529 kts 94°
2026-05-05 13:09 47.67829 -55.10969 34877 ft 529 kts 95°
2026-05-05 13:09 47.67347 -55.00068 34900 ft 530 kts 95°
2026-05-05 13:10 47.66858 -54.89204 34905 ft 531 kts 95°
2026-05-05 13:10 47.66354 -54.78265 34909 ft 532 kts 95°
2026-05-05 13:11 47.65840 -54.67317 34894 ft 532 kts 95°
2026-05-05 13:11 47.65316 -54.56369 34898 ft 532 kts 95°
2026-05-05 13:12 47.64779 -54.45422 34900 ft 531 kts 95°
2026-05-05 13:12 47.64234 -54.34500 34894 ft 531 kts 95°
2026-05-05 13:13 47.63679 -54.23588 34891 ft 530 kts 95°
2026-05-05 13:13 47.63119 -54.12768 34894 ft 529 kts 96°
2026-05-05 13:14 47.62544 -54.01875 34890 ft 529 kts 96°
2026-05-05 13:14 47.61960 -53.91002 34896 ft 529 kts 96°
2026-05-05 13:15 47.61364 -53.80110 34902 ft 529 kts 96°
2026-05-05 13:15 47.60759 -53.69231 34901 ft 530 kts 96°
2026-05-05 13:16 47.60147 -53.58416 34910 ft 530 kts 96°
2026-05-05 13:16 47.59520 -53.47521 34911 ft 530 kts 96°
2026-05-05 13:17 47.58882 -53.36625 34916 ft 531 kts 96°
2026-05-05 13:17 47.58235 -53.25729 34904 ft 530 kts 97°
2026-05-05 13:18 47.57577 -53.14852 34903 ft 530 kts 97°
2026-05-05 13:18 47.56913 -53.04031 34908 ft 530 kts 97°
2026-05-05 13:19 47.56235 -52.93158 34909 ft 530 kts 97°
2026-05-05 13:19 47.55547 -52.82291 34909 ft 530 kts 97°
2026-05-05 13:20 47.54848 -52.71418 34897 ft 531 kts 97°
2026-05-05 13:20 47.54259 -52.62368 34904 ft 532 kts 97°
2026-05-05 13:21 47.53538 -52.51458 34921 ft 533 kts 97°
2026-05-05 13:21 47.52804 -52.40501 34934 ft 534 kts 97°
2026-05-05 13:22 47.52065 -52.29630 34933 ft 535 kts 98°
2026-05-05 13:22 47.51312 -52.18688 34945 ft 534 kts 98°
2026-05-05 13:23 47.50549 -52.07748 34966 ft 534 kts 98°
2026-05-05 13:23 47.49938 -51.96768 34964 ft 536 kts 92°
2026-05-05 13:24 47.50028 -51.85738 34980 ft 536 kts 90°
2026-05-05 13:24 47.50168 -51.74709 34963 ft 536 kts 91°
2026-05-05 13:25 47.50261 -51.63753 34981 ft 537 kts 91°
2026-05-05 13:25 47.50317 -51.52708 34981 ft 538 kts 91°
2026-05-05 13:26 47.50358 -51.41641 34991 ft 539 kts 91°
2026-05-05 13:26 47.50391 -51.30546 34991 ft 539 kts 91°
2026-05-05 13:27 47.50415 -51.19447 34984 ft 540 kts 92°
2026-05-05 13:27 47.50429 -51.08332 35002 ft 540 kts 92°
2026-05-05 13:28 47.50432 -50.97209 34999 ft 541 kts 92°
2026-05-05 13:28 47.50424 -50.86093 34996 ft 541 kts 92°
2026-05-05 13:29 47.50405 -50.75043 35010 ft 540 kts 92°
2026-05-05 13:29 47.50376 -50.63914 35003 ft 540 kts 92°
2026-05-05 13:30 47.50336 -50.52789 35020 ft 540 kts 92°
2026-05-05 13:30 47.50286 -50.41749 35031 ft 540 kts 92°
2026-05-05 13:31 47.50224 -50.30643 35020 ft 540 kts 92°
2026-05-05 13:31 47.50152 -50.19529 35020 ft 540 kts 93°
2026-05-05 13:32 47.50071 -50.08426 35019 ft 539 kts 93°
2026-05-05 13:32 47.50171 -49.97386 35019 ft 541 kts 86°
2026-05-05 13:33 47.51168 -49.86337 35036 ft 542 kts 83°
2026-05-05 13:33 47.52265 -49.75284 35039 ft 543 kts 84°
2026-05-05 13:34 47.53318 -49.64217 35047 ft 543 kts 84°
2026-05-05 13:34 47.54327 -49.53139 35021 ft 543 kts 85°
2026-05-05 13:35 47.55315 -49.42050 35048 ft 544 kts 85°
2026-05-05 13:35 47.56290 -49.31000 35053 ft 545 kts 85°
2026-05-05 13:36 47.57265 -49.19855 35048 ft 546 kts 85°
2026-05-05 13:36 47.58231 -49.08706 35049 ft 546 kts 85°
2026-05-05 13:37 47.59188 -48.97528 35052 ft 546 kts 85°
2026-05-05 13:37 47.60135 -48.86344 35046 ft 546 kts 85°
2026-05-05 13:38 47.61070 -48.75161 35061 ft 546 kts 85°
2026-05-05 13:38 47.61987 -48.64055 35057 ft 547 kts 85°
2026-05-05 13:39 47.62900 -48.52857 35064 ft 547 kts 86°
2026-05-05 13:39 47.63803 -48.41656 35059 ft 547 kts 86°
2026-05-05 13:40 47.64696 -48.30438 35067 ft 547 kts 86°
2026-05-05 13:40 47.65578 -48.19220 35060 ft 546 kts 86°
2026-05-05 13:41 47.66441 -48.08099 35071 ft 545 kts 86°
2026-05-05 13:41 47.67297 -47.96922 35075 ft 545 kts 86°
2026-05-05 13:42 47.68143 -47.85742 35086 ft 544 kts 86°
2026-05-05 13:42 47.68975 -47.74582 35082 ft 544 kts 86°
2026-05-05 13:43 47.69796 -47.63436 35080 ft 543 kts 86°
2026-05-05 13:43 47.70607 -47.52259 35090 ft 543 kts 87°
2026-05-05 13:44 47.71407 -47.41089 35094 ft 545 kts 87°
2026-05-05 13:44 47.72193 -47.29953 35103 ft 546 kts 87°
2026-05-05 13:45 47.72976 -47.18712 35101 ft 547 kts 87°
2026-05-05 13:45 47.73748 -47.07474 35110 ft 547 kts 87°
2026-05-05 13:46 47.74510 -46.96217 35053 ft 546 kts 87°
2026-05-05 13:46 47.75260 -46.84986 35104 ft 545 kts 88°
2026-05-05 13:47 47.75997 -46.73757 35116 ft 546 kts 88°
2026-05-05 13:47 47.76718 -46.62599 35120 ft 546 kts 88°
2026-05-05 13:48 47.77434 -46.51353 35131 ft 546 kts 88°
2026-05-05 13:48 47.78139 -46.40114 35123 ft 545 kts 88°
2026-05-05 13:49 47.78832 -46.28881 35083 ft 545 kts 89°
2026-05-05 13:49 47.79513 -46.17666 35134 ft 545 kts 89°
2026-05-05 13:50 47.80180 -46.06472 35144 ft 547 kts 89°
2026-05-05 13:50 47.80843 -45.95172 35146 ft 549 kts 89°
2026-05-05 13:51 47.81497 -45.83844 35144 ft 549 kts 89°
2026-05-05 13:51 47.82141 -45.72508 35152 ft 549 kts 89°
2026-05-05 13:52 47.82773 -45.61182 35116 ft 549 kts 89°
2026-05-05 13:52 47.83393 -45.49856 35169 ft 549 kts 90°
2026-05-05 13:53 47.84003 -45.38501 35174 ft 550 kts 90°
2026-05-05 13:53 47.84598 -45.27202 35165 ft 551 kts 90°
2026-05-05 13:54 47.85187 -45.15826 35174 ft 552 kts 90°
2026-05-05 13:54 47.85767 -45.04412 35162 ft 552 kts 90°
2026-05-05 13:55 47.86334 -44.93012 35139 ft 551 kts 90°
2026-05-05 13:55 47.86890 -44.81602 35172 ft 552 kts 90°
2026-05-05 13:56 47.87431 -44.70270 35190 ft 553 kts 90°
2026-05-05 13:56 47.87966 -44.58818 35188 ft 554 kts 90°
2026-05-05 13:57 47.88491 -44.47344 35187 ft 555 kts 90°
2026-05-05 13:57 47.89004 -44.35877 35198 ft 554 kts 90°
2026-05-05 13:58 47.89506 -44.24411 35168 ft 554 kts 91°
2026-05-05 13:58 47.89995 -44.12947 35206 ft 555 kts 91°
2026-05-05 13:59 47.90709 -43.95710 35210 ft 558 kts 91°
2026-05-05 14:00 47.91325 -43.80333 35213 ft 559 kts 91°
2026-05-05 14:00 47.91850 -43.66820 35216 ft 559 kts 91°
2026-05-05 14:01 47.92286 -43.55258 35215 ft 559 kts 91°
2026-05-05 14:01 47.92711 -43.43668 35221 ft 560 kts 91°
2026-05-05 14:02 47.93122 -43.32112 35214 ft 561 kts 91°
2026-05-05 14:02 47.93526 -43.20473 35228 ft 562 kts 91°
2026-05-05 14:03 47.93918 -43.08806 35232 ft 563 kts 91°
2026-05-05 14:03 47.94299 -42.97151 35190 ft 563 kts 92°
2026-05-05 14:04 47.94668 -42.85488 35225 ft 562 kts 92°
2026-05-05 14:04 47.95025 -42.73828 35234 ft 562 kts 92°
2026-05-05 14:05 47.95369 -42.62171 35238 ft 562 kts 92°
2026-05-05 14:05 47.95700 -42.50596 35241 ft 562 kts 92°
2026-05-05 14:06 47.96021 -42.38949 35243 ft 561 kts 92°
2026-05-05 14:06 47.96330 -42.27288 35191 ft 561 kts 92°
2026-05-05 14:07 47.96627 -42.15644 35244 ft 562 kts 92°
2026-05-05 14:07 47.96910 -42.04032 35250 ft 564 kts 92°
2026-05-05 14:08 47.97186 -41.92285 35251 ft 566 kts 92°
2026-05-05 14:08 47.97450 -41.80528 35247 ft 567 kts 93°
2026-05-05 14:09 47.97662 -41.70748 35239 ft 567 kts 93°
2026-05-05 14:09 47.97905 -41.58996 35248 ft 566 kts 93°
2026-05-05 14:10 47.98171 -41.45338 35249 ft 565 kts 93°
2026-05-05 14:10 47.98352 -41.35528 35250 ft 564 kts 93°
2026-05-05 14:11 47.98557 -41.23824 35255 ft 563 kts 93°
2026-05-05 14:11 47.98749 -41.12229 35263 ft 562 kts 93°
2026-05-05 14:12 47.98930 -41.00562 35253 ft 561 kts 93°
2026-05-05 14:12 47.99099 -40.88931 35247 ft 559 kts 94°
2026-05-05 14:13 47.99255 -40.77310 35258 ft 560 kts 94°
2026-05-05 14:13 47.99400 -40.65673 35264 ft 560 kts 94°
2026-05-05 14:14 47.99533 -40.54020 35262 ft 561 kts 94°
2026-05-05 14:14 47.99655 -40.42372 35266 ft 561 kts 94°
2026-05-05 14:15 47.99766 -40.30716 35208 ft 561 kts 94°
2026-05-05 14:15 47.99863 -40.19130 35259 ft 562 kts 94°
2026-05-05 14:16 47.99951 -40.07422 35269 ft 565 kts 94°
2026-05-05 14:16 48.00122 -39.95655 35265 ft 569 kts 91°
2026-05-05 14:17 48.00609 -39.83842 35268 ft 571 kts 90°
2026-05-05 14:17 48.01156 -39.72005 35260 ft 571 kts 90°
2026-05-05 14:18 48.01667 -39.60170 35227 ft 570 kts 91°
2026-05-05 14:18 48.02137 -39.48342 35263 ft 571 kts 90°
2026-05-05 14:19 48.02588 -39.36482 35270 ft 573 kts 90°
2026-05-05 14:19 48.03031 -39.24567 35264 ft 575 kts 91°
2026-05-05 14:20 48.03462 -39.12710 35261 ft 576 kts 91°
2026-05-05 14:20 48.03885 -39.00748 35277 ft 576 kts 90°
2026-05-05 14:21 48.04296 -38.88802 35253 ft 574 kts 91°
2026-05-05 14:21 48.04693 -38.76888 35234 ft 573 kts 91°
2026-05-05 14:22 48.05077 -38.64972 35259 ft 575 kts 91°
2026-05-05 14:22 48.05449 -38.53011 35259 ft 577 kts 91°
2026-05-05 14:23 48.05810 -38.41004 35259 ft 578 kts 91°
2026-05-05 14:23 48.06160 -38.28994 35250 ft 579 kts 91°
2026-05-05 14:24 48.06496 -38.17042 35250 ft 579 kts 91°
2026-05-05 14:24 48.06821 -38.05031 35239 ft 577 kts 91°
2026-05-05 14:25 48.07133 -37.93038 35250 ft 576 kts 91°
2026-05-05 14:25 48.07431 -37.81069 35250 ft 576 kts 91°
2026-05-05 14:26 48.07716 -37.69160 35249 ft 575 kts 91°
2026-05-05 14:26 48.07989 -37.57209 35248 ft 575 kts 91°
2026-05-05 14:27 48.08249 -37.45252 35247 ft 574 kts 91°
2026-05-05 14:27 48.08497 -37.33315 35229 ft 573 kts 90°
2026-05-05 14:28 48.08732 -37.21413 35243 ft 571 kts 91°
2026-05-05 14:28 48.08955 -37.09542 35237 ft 570 kts 91°
2026-05-05 14:29 48.09164 -36.97719 35236 ft 569 kts 91°
2026-05-05 14:29 48.09359 -36.85967 35238 ft 568 kts 91°
2026-05-05 14:30 48.09543 -36.74150 35236 ft 568 kts 91°
2026-05-05 14:30 48.09716 -36.62334 35209 ft 568 kts 91°
2026-05-05 14:31 48.09876 -36.50533 35237 ft 567 kts 91°
2026-05-05 14:31 48.10024 -36.38749 35235 ft 566 kts 91°
2026-05-05 14:32 48.10160 -36.26980 35237 ft 565 kts 91°
2026-05-05 14:32 48.10283 -36.15200 35236 ft 565 kts 91°
2026-05-05 14:33 48.10394 -36.03520 35236 ft 565 kts 91°
2026-05-05 14:33 48.10494 -35.91762 35235 ft 565 kts 91°
2026-05-05 14:34 48.10581 -35.80009 35229 ft 564 kts 91°
2026-05-05 14:34 48.10656 -35.68275 35232 ft 564 kts 91°
2026-05-05 14:35 48.10719 -35.56608 35234 ft 564 kts 91°
2026-05-05 14:35 48.10771 -35.44882 35231 ft 564 kts 91°
2026-05-05 14:36 48.10811 -35.33128 35233 ft 564 kts 91°
2026-05-05 14:36 48.10839 -35.21389 35231 ft 564 kts 91°
2026-05-05 14:37 48.10854 -35.09648 35218 ft 563 kts 91°
2026-05-05 14:37 48.10858 -34.97993 35234 ft 563 kts 91°
2026-05-05 14:38 48.10851 -34.86243 35234 ft 564 kts 90°
2026-05-05 14:38 48.10831 -34.74505 35226 ft 564 kts 91°
2026-05-05 14:39 48.10799 -34.62764 35231 ft 563 kts 91°
2026-05-05 14:39 48.10755 -34.51120 35234 ft 563 kts 91°
2026-05-05 14:40 48.10700 -34.39412 35231 ft 562 kts 91°
2026-05-05 14:40 48.10632 -34.27697 35235 ft 563 kts 91°
2026-05-05 14:41 48.10552 -34.15991 35237 ft 562 kts 91°
2026-05-05 14:41 48.10461 -34.04289 35236 ft 562 kts 91°
2026-05-05 14:42 48.10359 -33.92665 35248 ft 562 kts 91°
2026-05-05 14:42 48.10244 -33.80976 35254 ft 562 kts 91°
2026-05-05 14:43 48.10117 -33.69262 35250 ft 562 kts 91°
2026-05-05 14:43 48.09978 -33.57565 35252 ft 562 kts 91°
2026-05-05 14:44 48.09828 -33.45878 35257 ft 562 kts 91°
2026-05-05 14:44 48.09666 -33.34179 35286 ft 563 kts 91°
2026-05-05 14:45 48.09492 -33.22548 35273 ft 563 kts 91°
2026-05-05 14:45 48.09306 -33.10835 35267 ft 563 kts 91°
2026-05-05 14:46 48.09108 -32.99121 35273 ft 563 kts 91°
2026-05-05 14:46 48.08897 -32.87390 35270 ft 562 kts 90°
2026-05-05 14:47 48.08675 -32.75705 35287 ft 562 kts 90°
2026-05-05 14:47 48.08443 -32.64031 35285 ft 561 kts 90°
2026-05-05 14:48 48.08198 -32.52376 35287 ft 560 kts 90°
2026-05-05 14:48 48.07943 -32.40788 35329 ft 563 kts 91°
2026-05-05 14:49 48.07810 -32.34936 35564 ft 564 kts 91°
2026-05-05 14:49 48.07673 -32.29069 35952 ft 561 kts 90°
2026-05-05 14:49 48.07534 -32.23262 36436 ft 556 kts 90°
2026-05-05 14:49 48.07393 -32.17501 36841 ft 553 kts 90°
2026-05-05 14:50 48.07250 -32.11751 37194 ft 552 kts 90°
2026-05-05 14:50 48.07105 -32.05998 37278 ft 554 kts 90°
2026-05-05 14:50 48.06807 -31.94458 37302 ft 555 kts 90°
2026-05-05 14:51 48.06496 -31.82970 37307 ft 551 kts 90°
2026-05-05 14:51 48.06177 -31.71604 37309 ft 549 kts 90°
2026-05-05 14:52 48.05846 -31.60194 37318 ft 549 kts 90°
2026-05-05 14:52 48.05504 -31.48790 37324 ft 549 kts 90°
2026-05-05 14:53 48.05152 -31.37428 37310 ft 550 kts 90°
2026-05-05 14:53 48.04786 -31.25985 37349 ft 551 kts 90°
2026-05-05 14:54 48.04408 -31.14532 37325 ft 552 kts 90°
2026-05-05 14:54 48.04018 -31.03065 37334 ft 552 kts 90°
2026-05-05 14:55 48.03616 -30.91592 37328 ft 551 kts 90°
2026-05-05 14:55 48.03205 -30.80173 37342 ft 550 kts 90°
2026-05-05 14:56 48.02783 -30.68759 37335 ft 549 kts 90°
2026-05-05 14:56 48.02353 -30.57466 37344 ft 547 kts 90°
2026-05-05 14:57 48.01912 -30.46141 37342 ft 545 kts 90°
2026-05-05 14:57 48.01461 -30.34843 37345 ft 544 kts 90°
2026-05-05 14:58 48.01079 -30.25483 37347 ft 543 kts 90°
2026-05-05 14:58 48.00611 -30.14226 37357 ft 543 kts 90°
2026-05-05 14:59 48.00551 -30.01193 37349 ft 536 kts 80°
2026-05-05 14:59 48.01511 -29.92032 37365 ft 530 kts 71°
2026-05-05 15:00 48.03526 -29.81529 37364 ft 525 kts 67°
2026-05-05 15:00 48.05636 -29.71150 37366 ft 526 kts 67°
2026-05-05 15:01 48.07726 -29.60664 37352 ft 526 kts 68°
2026-05-05 15:01 48.09776 -29.50146 37374 ft 526 kts 68°
2026-05-05 15:02 48.11803 -29.39632 37358 ft 525 kts 68°
2026-05-05 15:02 48.13820 -29.29116 37372 ft 525 kts 69°
2026-05-05 15:03 48.15827 -29.18607 37370 ft 524 kts 69°
2026-05-05 15:03 48.17820 -29.08123 37369 ft 523 kts 69°
2026-05-05 15:04 48.19788 -28.97708 37407 ft 522 kts 69°
2026-05-05 15:04 48.21761 -28.87221 37377 ft 522 kts 69°
2026-05-05 15:05 48.24692 -28.71508 37370 ft 520 kts 70°
2026-05-05 15:06 48.26633 -28.61037 37370 ft 520 kts 70°
2026-05-05 15:06 48.28548 -28.50647 37376 ft 519 kts 70°
2026-05-05 15:07 48.30459 -28.40213 37365 ft 517 kts 70°
2026-05-05 15:07 48.32357 -28.29796 37366 ft 516 kts 70°
2026-05-05 15:08 48.34242 -28.19393 37380 ft 515 kts 70°
2026-05-05 15:08 48.36111 -28.09017 37383 ft 514 kts 70°
2026-05-05 15:09 48.37967 -27.98653 37377 ft 512 kts 70°
2026-05-05 15:09 48.39809 -27.88305 37378 ft 510 kts 70°
2026-05-05 15:10 48.41635 -27.77991 37381 ft 510 kts 71°
2026-05-05 15:10 48.43441 -27.67733 37388 ft 509 kts 71°
2026-05-05 15:11 48.45245 -27.57429 37377 ft 508 kts 71°
2026-05-05 15:11 48.47038 -27.47122 37382 ft 508 kts 71°
2026-05-05 15:12 48.48818 -27.36832 37379 ft 507 kts 71°
2026-05-05 15:12 48.50592 -27.26517 37384 ft 507 kts 71°
2026-05-05 15:13 48.52355 -27.16208 37378 ft 507 kts 71°
2026-05-05 15:13 48.54098 -27.05953 37369 ft 508 kts 71°
2026-05-05 15:14 48.55845 -26.95608 37387 ft 508 kts 71°
2026-05-05 15:14 48.57585 -26.85249 37393 ft 509 kts 71°
2026-05-05 15:15 48.59316 -26.74876 37386 ft 509 kts 71°
2026-05-05 15:15 48.61036 -26.64508 37381 ft 508 kts 71°
2026-05-05 15:16 48.62745 -26.54141 37384 ft 508 kts 72°
2026-05-05 15:16 48.64443 -26.43780 37377 ft 508 kts 71°
2026-05-05 15:17 48.66121 -26.33476 37380 ft 507 kts 72°
2026-05-05 15:17 48.67797 -26.23123 37379 ft 507 kts 72°
2026-05-05 15:18 48.69465 -26.12751 37380 ft 506 kts 72°
2026-05-05 15:18 48.71123 -26.02382 37386 ft 507 kts 72°
2026-05-05 15:19 48.72773 -25.91997 37381 ft 507 kts 72°
2026-05-05 15:19 48.74405 -25.81666 37380 ft 507 kts 72°
2026-05-05 15:20 48.76035 -25.71270 37380 ft 507 kts 72°
2026-05-05 15:20 48.77658 -25.60859 37382 ft 508 kts 71°
2026-05-05 15:21 48.79273 -25.50428 37379 ft 508 kts 72°
2026-05-05 15:21 48.80880 -25.39989 37380 ft 508 kts 72°
2026-05-05 15:22 48.82464 -25.29626 37377 ft 508 kts 72°
2026-05-05 15:22 48.84051 -25.19171 37383 ft 508 kts 72°
2026-05-05 15:23 48.85629 -25.08713 37371 ft 508 kts 72°
2026-05-05 15:23 48.87196 -24.98256 37371 ft 507 kts 72°
2026-05-05 15:24 48.88751 -24.87810 37372 ft 507 kts 72°
2026-05-05 15:24 48.90297 -24.77355 37373 ft 507 kts 72°
2026-05-05 15:25 48.91825 -24.66952 37369 ft 506 kts 72°
2026-05-05 15:25 48.93348 -24.56509 37372 ft 506 kts 72°
2026-05-05 15:26 48.94865 -24.46043 37365 ft 505 kts 72°
2026-05-05 15:26 48.96368 -24.35598 37375 ft 506 kts 72°
2026-05-05 15:27 48.97865 -24.25125 37368 ft 506 kts 72°
2026-05-05 15:27 48.99352 -24.14650 37362 ft 506 kts 72°
2026-05-05 15:28 49.00817 -24.04255 37364 ft 506 kts 72°
2026-05-05 15:28 49.02284 -23.93773 37370 ft 506 kts 72°
2026-05-05 15:29 49.03748 -23.83242 37369 ft 506 kts 72°
2026-05-05 15:29 49.05199 -23.72723 37363 ft 507 kts 72°
2026-05-05 15:30 49.06630 -23.62275 37368 ft 507 kts 72°
2026-05-05 15:30 49.08063 -23.51741 37371 ft 507 kts 73°
2026-05-05 15:31 49.09488 -23.41192 37363 ft 507 kts 73°
2026-05-05 15:31 49.10902 -23.30636 37357 ft 507 kts 73°
2026-05-05 15:32 49.12307 -23.20072 37358 ft 507 kts 73°
2026-05-05 15:32 49.13695 -23.09560 37358 ft 507 kts 73°
2026-05-05 15:33 49.15081 -22.98991 37357 ft 507 kts 73°
2026-05-05 15:33 49.16459 -22.88400 37354 ft 507 kts 73°
2026-05-05 15:34 49.17817 -22.77878 37357 ft 507 kts 73°
2026-05-05 15:34 49.19174 -22.67289 37377 ft 507 kts 74°
2026-05-05 15:35 49.20521 -22.56697 37361 ft 507 kts 74°
2026-05-05 15:35 49.21856 -22.46107 37345 ft 506 kts 74°
2026-05-05 15:36 49.23179 -22.35536 37348 ft 505 kts 74°
2026-05-05 15:36 49.24490 -22.24985 37371 ft 504 kts 75°
2026-05-05 15:37 49.25783 -22.14494 37345 ft 504 kts 75°
2026-05-05 15:37 49.27070 -22.03966 37344 ft 503 kts 75°
2026-05-05 15:38 49.28347 -21.93435 37347 ft 502 kts 75°
2026-05-05 15:38 49.29612 -21.82920 37366 ft 501 kts 75°
2026-05-05 15:39 49.30866 -21.72419 37350 ft 499 kts 76°
2026-05-05 15:39 49.32102 -21.61967 37332 ft 497 kts 76°
2026-05-05 15:40 49.33323 -21.51571 37334 ft 494 kts 76°
2026-05-05 15:40 49.34530 -21.41206 37336 ft 493 kts 76°
2026-05-05 15:41 49.35720 -21.30915 37348 ft 492 kts 77°
2026-05-05 15:41 49.36904 -21.20581 37337 ft 492 kts 77°
2026-05-05 15:42 49.38080 -21.10233 37331 ft 492 kts 77°
2026-05-05 15:42 49.39246 -20.99888 37338 ft 492 kts 77°
2026-05-05 15:43 49.40404 -20.89526 37344 ft 493 kts 77°
2026-05-05 15:43 49.41548 -20.79203 37338 ft 493 kts 77°
2026-05-05 15:44 49.42688 -20.68818 37334 ft 493 kts 77°
2026-05-05 15:44 49.43823 -20.58402 37326 ft 494 kts 78°
2026-05-05 15:45 49.44940 -20.48051 37348 ft 493 kts 78°
2026-05-05 15:45 49.46055 -20.37636 37332 ft 493 kts 78°
2026-05-05 15:46 49.47160 -20.27214 37322 ft 493 kts 78°
2026-05-05 15:46 49.48253 -20.16819 37321 ft 492 kts 78°
2026-05-05 15:47 49.49154 -20.08188 37317 ft 492 kts 78°
2026-05-05 15:47 49.50110 -19.97771 37310 ft 493 kts 84°
2026-05-05 15:48 49.50352 -19.87220 37306 ft 493 kts 86°
2026-05-05 15:48 49.50507 -19.76672 37310 ft 493 kts 86°
2026-05-05 15:49 49.50676 -19.66211 37315 ft 493 kts 86°
2026-05-05 15:49 49.50863 -19.55668 37312 ft 493 kts 86°
2026-05-05 15:50 49.51048 -19.45120 37307 ft 493 kts 86°
2026-05-05 15:50 49.51222 -19.34573 37310 ft 493 kts 86°
2026-05-05 15:51 49.51386 -19.24017 37308 ft 493 kts 86°
2026-05-05 15:51 49.51540 -19.13451 37319 ft 493 kts 87°
2026-05-05 15:52 49.51684 -19.02882 37305 ft 493 kts 87°
2026-05-05 15:52 49.51818 -18.92325 37298 ft 493 kts 87°
2026-05-05 15:53 49.51942 -18.81852 37299 ft 492 kts 87°
2026-05-05 15:53 49.52056 -18.71324 37296 ft 492 kts 87°
2026-05-05 15:54 49.52162 -18.60787 37293 ft 492 kts 87°
2026-05-05 15:54 49.52258 -18.50248 37294 ft 491 kts 88°
2026-05-05 15:55 49.52344 -18.39728 37292 ft 491 kts 88°
2026-05-05 15:55 49.52421 -18.29206 37291 ft 492 kts 88°
2026-05-05 15:56 49.52488 -18.18737 37299 ft 492 kts 88°
2026-05-05 15:56 49.52545 -18.08207 37287 ft 492 kts 88°
2026-05-05 15:57 49.52593 -17.97677 37288 ft 492 kts 88°
2026-05-05 15:57 49.52632 -17.87148 37288 ft 491 kts 88°
2026-05-05 15:58 49.52661 -17.76632 37280 ft 491 kts 88°
2026-05-05 15:58 49.52680 -17.66119 37284 ft 491 kts 88°
2026-05-05 15:59 49.52690 -17.55592 37268 ft 491 kts 88°
2026-05-05 15:59 49.52690 -17.45092 37274 ft 490 kts 89°
2026-05-05 16:00 49.52681 -17.34603 37274 ft 490 kts 89°
2026-05-05 16:00 49.52662 -17.24115 37282 ft 490 kts 89°
2026-05-05 16:01 49.52635 -17.13676 37271 ft 490 kts 89°
2026-05-05 16:01 49.52597 -17.03168 37263 ft 490 kts 89°
2026-05-05 16:02 49.52550 -16.92659 37267 ft 490 kts 89°
2026-05-05 16:02 49.52493 -16.82165 37261 ft 490 kts 89°
2026-05-05 16:03 49.52427 -16.71666 37262 ft 491 kts 89°
2026-05-05 16:03 49.52352 -16.61143 37253 ft 491 kts 89°
2026-05-05 16:04 49.52267 -16.50694 37251 ft 491 kts 89°
2026-05-05 16:04 49.52172 -16.40186 37253 ft 491 kts 89°
2026-05-05 16:05 49.52068 -16.29645 37254 ft 491 kts 89°
2026-05-05 16:05 49.51954 -16.19127 37246 ft 492 kts 89°
2026-05-05 16:06 49.51830 -16.08605 37234 ft 492 kts 89°
2026-05-05 16:06 49.51698 -15.98154 37241 ft 491 kts 90°
2026-05-05 16:07 49.51556 -15.87645 37240 ft 491 kts 90°
2026-05-05 16:07 49.51404 -15.77136 37240 ft 491 kts 90°
2026-05-05 16:08 49.51243 -15.66639 37232 ft 491 kts 90°
2026-05-05 16:08 49.51073 -15.56152 37229 ft 490 kts 90°
2026-05-05 16:09 49.50892 -15.45649 37228 ft 490 kts 90°
2026-05-05 16:09 49.50703 -15.35169 37228 ft 490 kts 90°
2026-05-05 16:10 49.50505 -15.24698 37224 ft 489 kts 90°
2026-05-05 16:10 49.50297 -15.14236 37220 ft 489 kts 90°
2026-05-05 16:11 49.50082 -15.03777 37221 ft 489 kts 90°
2026-05-05 16:12 49.50003 -14.82946 37215 ft 488 kts 88°
2026-05-05 16:13 49.50108 -14.56863 37207 ft 488 kts 88°
2026-05-05 16:13 49.50107 -14.46431 37208 ft 487 kts 88°
2026-05-05 16:14 49.50081 -14.25653 37197 ft 486 kts 89°
2026-05-05 16:15 49.50021 -14.04844 37195 ft 485 kts 89°
2026-05-05 16:16 49.50309 -13.84099 37191 ft 484 kts 85°
2026-05-05 16:17 49.50760 -13.68555 37188 ft 485 kts 86°
2026-05-05 16:18 49.51123 -13.53052 37192 ft 485 kts 86°
2026-05-05 16:19 49.51448 -13.37484 37184 ft 485 kts 86°
2026-05-05 16:19 49.51755 -13.21939 37179 ft 484 kts 86°
2026-05-05 16:20 49.52132 -13.01298 37183 ft 483 kts 87°
2026-05-05 16:22 49.52551 -12.75452 37170 ft 482 kts 87°
2026-05-05 16:23 49.52844 -12.54855 37169 ft 482 kts 87°
2026-05-05 16:23 49.53041 -12.39380 37155 ft 482 kts 87°
2026-05-05 16:24 49.53160 -12.29049 37162 ft 481 kts 87°
2026-05-05 16:25 49.53321 -12.13666 37158 ft 480 kts 87°
2026-05-05 16:25 49.53462 -11.98242 37154 ft 480 kts 88°
2026-05-05 16:26 49.53618 -11.77694 37144 ft 479 kts 88°
2026-05-05 16:27 49.53681 -11.67507 37147 ft 479 kts 88°
2026-05-05 16:27 49.53736 -11.57252 37143 ft 479 kts 88°
2026-05-05 16:28 49.53782 -11.46997 37141 ft 479 kts 88°
2026-05-05 16:28 49.53819 -11.36754 37137 ft 479 kts 88°
2026-05-05 16:29 49.53847 -11.26503 37146 ft 479 kts 88°
2026-05-05 16:29 49.53866 -11.16254 37130 ft 479 kts 88°
2026-05-05 16:30 49.53876 -11.05996 37131 ft 479 kts 89°
2026-05-05 16:30 49.53877 -10.95804 37131 ft 478 kts 89°
2026-05-05 16:31 49.53869 -10.85561 37127 ft 479 kts 89°
2026-05-05 16:31 49.53851 -10.75312 37131 ft 478 kts 89°
2026-05-05 16:32 49.53825 -10.65067 37124 ft 478 kts 89°
2026-05-05 16:32 49.53790 -10.54826 37124 ft 478 kts 89°
2026-05-05 16:33 49.53745 -10.44600 37116 ft 477 kts 89°
2026-05-05 16:33 49.53692 -10.34372 37128 ft 477 kts 89°
2026-05-05 16:34 49.53641 -10.25887 37118 ft 477 kts 89°
2026-05-05 16:34 49.53559 -10.14028 37113 ft 476 kts 89°
2026-05-05 16:35 49.53479 -10.03840 37109 ft 476 kts 89°
2026-05-05 16:35 49.53405 -9.95312 37114 ft 475 kts 89°
2026-05-05 16:36 49.53309 -9.85146 37114 ft 475 kts 89°
2026-05-05 16:36 49.53205 -9.75051 37098 ft 474 kts 89°
2026-05-05 16:37 49.53090 -9.64842 37104 ft 474 kts 89°
2026-05-05 16:37 49.52969 -9.54770 37095 ft 473 kts 89°
2026-05-05 16:38 49.52837 -9.44635 37105 ft 473 kts 89°
2026-05-05 16:38 49.52697 -9.34495 37106 ft 473 kts 89°
2026-05-05 16:39 49.52548 -9.24353 37101 ft 474 kts 90°
2026-05-05 16:39 49.52390 -9.14211 37091 ft 474 kts 90°
2026-05-05 16:40 49.52223 -9.04063 37099 ft 474 kts 90°
2026-05-05 16:40 49.52047 -8.93916 37101 ft 475 kts 90°
2026-05-05 16:41 49.51863 -8.83758 37090 ft 475 kts 90°
2026-05-05 16:41 49.51668 -8.73584 37096 ft 475 kts 90°
2026-05-05 16:42 49.51465 -8.63405 37089 ft 476 kts 90°
2026-05-05 16:42 49.51254 -8.53286 37084 ft 476 kts 90°
2026-05-05 16:43 49.51033 -8.43095 37086 ft 476 kts 90°
2026-05-05 16:43 49.50804 -8.32928 37087 ft 475 kts 90°
2026-05-05 16:44 49.50565 -8.22765 37075 ft 475 kts 91°
2026-05-05 16:44 49.50319 -8.12618 37079 ft 474 kts 91°
2026-05-05 16:45 49.50059 -8.02538 37084 ft 474 kts 92°
2026-05-05 16:45 49.49084 -7.92488 37082 ft 475 kts 100°
2026-05-05 16:46 49.47676 -7.82568 37068 ft 475 kts 101°
2026-05-05 16:46 49.46278 -7.72649 37071 ft 474 kts 100°
2026-05-05 16:47 49.44907 -7.62739 37067 ft 474 kts 100°
2026-05-05 16:47 49.43538 -7.52836 37071 ft 474 kts 100°
2026-05-05 16:48 49.42166 -7.42990 37058 ft 473 kts 100°
2026-05-05 16:48 49.40780 -7.33117 37061 ft 473 kts 100°
2026-05-05 16:49 49.39388 -7.23252 37060 ft 472 kts 100°
2026-05-05 16:49 49.38103 -7.13366 37066 ft 471 kts 95°
2026-05-05 16:50 49.37854 -7.03373 37055 ft 468 kts 86°
2026-05-05 16:50 49.38069 -6.93383 37048 ft 468 kts 86°
2026-05-05 16:51 49.38267 -6.83455 37046 ft 468 kts 86°
2026-05-05 16:51 49.38432 -6.73451 37045 ft 469 kts 87°
2026-05-05 16:52 49.38576 -6.63433 37050 ft 469 kts 87°
2026-05-05 16:52 49.38709 -6.53401 37038 ft 469 kts 87°
2026-05-05 16:53 49.38834 -6.43443 37039 ft 469 kts 87°
2026-05-05 16:53 49.38952 -6.33419 37032 ft 469 kts 87°
2026-05-05 16:54 49.39062 -6.23383 37033 ft 469 kts 88°
2026-05-05 16:54 49.39163 -6.13357 37026 ft 470 kts 88°
2026-05-05 16:55 49.39254 -6.03382 37021 ft 470 kts 88°
2026-05-05 16:55 49.39338 -5.93356 37020 ft 470 kts 88°
2026-05-05 16:56 49.39413 -5.83316 37017 ft 470 kts 88°
2026-05-05 16:56 49.39479 -5.73276 37024 ft 471 kts 88°
2026-05-05 16:57 49.39537 -5.63212 37017 ft 471 kts 89°
2026-05-05 16:57 49.39585 -5.53159 37012 ft 471 kts 89°
2026-05-05 16:58 49.39626 -5.43089 37003 ft 471 kts 89°
2026-05-05 16:58 49.39657 -5.33101 37015 ft 471 kts 89°
2026-05-05 16:59 49.39680 -5.23041 37006 ft 470 kts 89°
2026-05-05 16:59 49.39694 -5.13000 37002 ft 470 kts 89°
2026-05-05 17:00 49.39701 -5.02978 36995 ft 469 kts 89°
2026-05-05 17:00 49.39518 -4.92983 36994 ft 468 kts 93°
2026-05-05 17:01 49.39025 -4.83024 36996 ft 468 kts 94°
2026-05-05 17:01 49.38503 -4.73060 36999 ft 468 kts 94°
2026-05-05 17:02 49.37996 -4.63152 37000 ft 468 kts 94°
2026-05-05 17:02 49.37489 -4.53180 36997 ft 469 kts 94°
2026-05-05 17:03 49.36977 -4.43192 36992 ft 469 kts 94°
2026-05-05 17:03 49.36455 -4.33209 36996 ft 470 kts 94°
2026-05-05 17:04 49.35924 -4.23220 36989 ft 470 kts 94°
2026-05-05 17:04 49.35382 -4.13216 36981 ft 471 kts 94°
2026-05-05 17:05 49.34836 -4.03266 36980 ft 471 kts 94°
2026-05-05 17:05 49.34277 -3.93261 36981 ft 471 kts 95°
2026-05-05 17:06 49.33708 -3.83231 36981 ft 471 kts 95°
2026-05-05 17:06 49.33132 -3.73229 36976 ft 471 kts 95°
2026-05-05 17:07 49.32547 -3.63227 36966 ft 470 kts 95°
2026-05-05 17:07 49.31955 -3.53242 36970 ft 470 kts 95°
2026-05-05 17:08 49.31357 -3.43324 36971 ft 470 kts 95°
2026-05-05 17:08 49.30747 -3.33333 36962 ft 470 kts 95°
2026-05-05 17:09 49.30129 -3.23353 36961 ft 470 kts 95°
2026-05-05 17:09 49.29502 -3.13384 36967 ft 470 kts 95°
2026-05-05 17:10 49.28866 -3.03402 36960 ft 470 kts 96°
2026-05-05 17:10 49.28227 -2.93506 36949 ft 470 kts 96°
2026-05-05 17:11 49.27574 -2.83535 36954 ft 469 kts 96°
2026-05-05 17:11 49.26910 -2.73528 36979 ft 475 kts 96°
2026-05-05 17:12 49.26231 -2.63425 36969 ft 478 kts 96°
2026-05-05 17:12 49.25546 -2.53366 36963 ft 478 kts 97°
2026-05-05 17:13 49.24849 -2.43265 36957 ft 477 kts 96°
2026-05-05 17:13 49.24144 -2.33174 36938 ft 475 kts 96°
2026-05-05 17:14 49.23433 -2.23118 36938 ft 474 kts 97°
2026-05-05 17:14 49.22718 -2.13117 36938 ft 472 kts 97°
2026-05-05 17:15 49.21926 -2.03230 36929 ft 469 kts 101°
2026-05-05 17:15 49.20476 -1.93510 36936 ft 467 kts 104°
2026-05-05 17:16 49.18941 -1.83850 36933 ft 466 kts 104°
2026-05-05 17:16 49.17422 -1.74202 36935 ft 467 kts 104°
2026-05-05 17:17 49.15914 -1.64549 36923 ft 467 kts 104°
2026-05-05 17:17 49.14414 -1.54956 36935 ft 467 kts 104°
2026-05-05 17:18 49.12895 -1.45302 36918 ft 468 kts 104°
2026-05-05 17:18 49.11365 -1.35646 36922 ft 468 kts 104°
2026-05-05 17:19 49.09825 -1.25979 36920 ft 468 kts 105°
2026-05-05 17:19 49.08275 -1.16317 36924 ft 468 kts 105°
2026-05-05 17:20 49.06721 -1.06679 36902 ft 468 kts 105°
2026-05-05 17:20 49.05160 -0.97049 36924 ft 467 kts 105°
2026-05-05 17:21 49.03604 -0.87509 36913 ft 467 kts 105°
2026-05-05 17:22 49.01501 -0.74703 36900 ft 467 kts 105°
2026-05-05 17:22 48.99917 -0.65118 36918 ft 466 kts 105°
2026-05-05 17:23 48.98326 -0.55547 36909 ft 466 kts 105°
2026-05-05 17:23 48.96727 -0.45978 36909 ft 466 kts 105°
2026-05-05 17:24 48.95120 -0.36419 36922 ft 466 kts 105°
2026-05-05 17:24 48.93504 -0.26860 36901 ft 467 kts 105°
2026-05-05 17:25 48.91878 -0.17291 36902 ft 467 kts 105°
2026-05-05 17:25 48.90244 -0.07729 36897 ft 467 kts 105°
2026-05-05 17:26 48.88603 0.01822 36871 ft 467 kts 105°
2026-05-05 17:26 48.86967 0.11296 36898 ft 466 kts 106°
2026-05-05 17:27 48.85312 0.20821 36885 ft 467 kts 106°
2026-05-05 17:27 48.83649 0.30350 36883 ft 467 kts 106°
2026-05-05 17:28 48.81973 0.39895 36875 ft 467 kts 106°
2026-05-05 17:28 48.80290 0.49429 36881 ft 468 kts 106°
2026-05-05 17:29 48.78602 0.58954 36873 ft 468 kts 106°
2026-05-05 17:29 48.76913 0.68497 36874 ft 468 kts 105°
2026-05-05 17:30 48.75623 0.78170 36878 ft 468 kts 102°
2026-05-05 17:30 48.74429 0.87814 36862 ft 468 kts 102°
2026-05-05 17:31 48.73209 0.97504 36868 ft 468 kts 102°
2026-05-05 17:31 48.71965 1.07190 36852 ft 469 kts 102°
2026-05-05 17:32 48.70708 1.16876 36842 ft 469 kts 102°
2026-05-05 17:32 48.69443 1.26549 36839 ft 468 kts 102°
2026-05-05 17:33 48.68171 1.36220 36842 ft 468 kts 102°
2026-05-05 17:33 48.66891 1.45886 36831 ft 468 kts 102°
2026-05-05 17:34 48.65604 1.55537 36838 ft 468 kts 102°
2026-05-05 17:34 48.64307 1.65200 36833 ft 468 kts 103°
2026-05-05 17:35 48.63011 1.74790 36816 ft 469 kts 103°
2026-05-05 17:35 48.61698 1.84445 36824 ft 469 kts 103°
2026-05-05 17:36 48.60372 1.94132 36827 ft 470 kts 103°
2026-05-05 17:36 48.59037 2.03815 36830 ft 471 kts 103°
2026-05-05 17:37 48.57701 2.13460 36830 ft 472 kts 103°
2026-05-05 17:37 48.56695 2.23261 36823 ft 474 kts 94°
2026-05-05 17:38 48.56444 2.33195 36830 ft 474 kts 93°
2026-05-05 17:38 48.56195 2.43162 36808 ft 474 kts 94°
2026-05-05 17:39 48.55900 2.53112 36803 ft 474 kts 94°
2026-05-05 17:39 48.55586 2.63041 36793 ft 474 kts 94°
2026-05-05 17:40 48.55266 2.72996 36802 ft 474 kts 94°
2026-05-05 17:40 48.54948 2.82954 36810 ft 475 kts 94°
2026-05-05 17:41 48.54638 2.92856 36809 ft 475 kts 94°
2026-05-05 17:41 48.54310 3.02832 36806 ft 476 kts 94°
2026-05-05 17:42 48.53963 3.12820 36796 ft 477 kts 95°
2026-05-05 17:42 48.53607 3.22829 36806 ft 477 kts 95°
2026-05-05 17:43 48.53245 3.32848 36811 ft 479 kts 95°
2026-05-05 17:43 48.52873 3.42897 36802 ft 480 kts 95°
2026-05-05 17:44 48.52495 3.52886 36790 ft 481 kts 95°
2026-05-05 17:44 48.52099 3.63069 36816 ft 490 kts 95°
2026-05-05 17:45 48.51689 3.73401 36809 ft 495 kts 95°
2026-05-05 17:45 48.51270 3.83790 36799 ft 496 kts 95°
2026-05-05 17:46 48.50838 3.94144 36790 ft 488 kts 96°
2026-05-05 17:46 48.50374 3.99123 36785 ft 474 kts 104°
2026-05-05 17:46 48.49537 4.03905 36792 ft 469 kts 109°
2026-05-05 17:47 48.46971 4.12810 36804 ft 466 kts 119°
2026-05-05 17:47 48.43918 4.21443 36814 ft 467 kts 120°
2026-05-05 17:48 48.40853 4.30100 36796 ft 469 kts 119°
2026-05-05 17:48 48.37814 4.38788 36792 ft 469 kts 120°
2026-05-05 17:49 48.34779 4.47486 36808 ft 470 kts 120°
2026-05-05 17:49 48.31735 4.56186 36803 ft 470 kts 120°
2026-05-05 17:50 48.28697 4.64836 36815 ft 470 kts 120°
2026-05-05 17:50 48.25629 4.73539 36793 ft 470 kts 120°
2026-05-05 17:51 48.22561 4.82213 36810 ft 470 kts 120°
2026-05-05 17:51 48.19510 4.90810 36816 ft 470 kts 120°
2026-05-05 17:52 48.16430 4.99462 36812 ft 470 kts 120°
2026-05-05 17:52 48.13347 5.08099 36813 ft 470 kts 121°
2026-05-05 17:53 48.10398 5.16827 36825 ft 471 kts 115°
2026-05-05 17:53 48.08377 5.26198 36834 ft 474 kts 108°
2026-05-05 17:54 48.06615 5.35704 36832 ft 474 kts 108°
2026-05-05 17:54 48.04836 5.45148 36819 ft 475 kts 108°
2026-05-05 17:55 48.03014 5.54637 36807 ft 475 kts 109°
2026-05-05 17:55 48.01173 5.64130 36836 ft 476 kts 109°
2026-05-05 17:56 47.99321 5.73630 36835 ft 477 kts 109°
2026-05-05 17:56 47.97460 5.83134 36842 ft 477 kts 109°
2026-05-05 17:57 47.95589 5.92647 36846 ft 478 kts 109°
2026-05-05 17:57 47.93721 6.02103 36850 ft 478 kts 109°
2026-05-05 17:58 47.91830 6.11621 36863 ft 478 kts 109°
2026-05-05 17:58 47.89933 6.21125 36863 ft 479 kts 109°
2026-05-05 17:59 47.88015 6.30683 36287 ft 488 kts 109°
2026-05-05 17:59 47.87036 6.35540 35650 ft 487 kts 109°
2026-05-05 17:59 47.86064 6.40363 34926 ft 487 kts 109°
2026-05-05 17:59 47.85088 6.45191 34206 ft 486 kts 109°
2026-05-05 18:00 47.84127 6.49935 33387 ft 485 kts 109°
2026-05-05 18:00 47.83149 6.54744 32532 ft 485 kts 109°
2026-05-05 18:00 47.82172 6.59539 31704 ft 483 kts 109°
2026-05-05 18:00 47.81197 6.64319 30830 ft 482 kts 109°
2026-05-05 18:01 47.80218 6.69097 29974 ft 482 kts 109°
2026-05-05 18:01 47.79240 6.73863 28916 ft 482 kts 109°
2026-05-05 18:01 47.78259 6.78630 28134 ft 477 kts 110°
2026-05-05 18:01 47.77295 6.83316 27517 ft 470 kts 110°
2026-05-05 18:02 47.76342 6.87933 26904 ft 465 kts 110°
2026-05-05 18:02 47.75395 6.92498 26264 ft 459 kts 110°
2026-05-05 18:02 47.74459 6.97005 25657 ft 455 kts 110°
2026-05-05 18:02 47.73528 7.01481 25064 ft 450 kts 110°
2026-05-05 18:03 47.72605 7.05908 24459 ft 446 kts 110°
2026-05-05 18:03 47.71690 7.10290 23858 ft 442 kts 110°
2026-05-05 18:03 47.70780 7.14635 23232 ft 439 kts 110°
2026-05-05 18:03 47.69873 7.18956 22558 ft 435 kts 110°
2026-05-05 18:04 47.68976 7.23220 21964 ft 430 kts 110°
2026-05-05 18:04 47.68087 7.27436 21374 ft 426 kts 110°
2026-05-05 18:04 47.67203 7.31617 20794 ft 422 kts 110°
2026-05-05 18:04 47.66327 7.35753 20223 ft 419 kts 110°
2026-05-05 18:05 47.65457 7.39858 19666 ft 416 kts 110°
2026-05-05 18:05 47.64601 7.43893 19112 ft 414 kts 110°
2026-05-05 18:05 47.63736 7.47953 18555 ft 412 kts 110°
2026-05-05 18:05 47.62861 7.51991 17986 ft 410 kts 111°
2026-05-05 18:06 47.61931 7.55983 17341 ft 409 kts 112°
2026-05-05 18:06 47.61610 7.57333 17118 ft 408 kts 112°
2026-05-05 18:06 47.60038 7.63903 16156 ft 406 kts 112°
2026-05-05 18:06 47.59104 7.67842 15570 ft 405 kts 112°
2026-05-05 18:07 47.58174 7.71775 14981 ft 404 kts 112°
2026-05-05 18:07 47.57247 7.75699 14422 ft 403 kts 112°
2026-05-05 18:07 47.56199 7.79513 13815 ft 398 kts 121°
2026-05-05 18:07 47.54721 7.82934 13144 ft 392 kts 132°
2026-05-05 18:08 47.52885 7.85859 12511 ft 386 kts 140°
2026-05-05 18:08 47.51583 7.87649 12095 ft 384 kts 142°
2026-05-05 18:08 47.49598 7.90268 11469 ft 382 kts 143°
2026-05-05 18:08 47.46999 7.93663 11080 ft 366 kts 143°
2026-05-05 18:09 47.45170 7.96063 10886 ft 338 kts 143°
2026-05-05 18:09 47.43504 7.98287 10852 ft 310 kts 141°
2026-05-05 18:09 47.42605 7.99888 10650 ft 305 kts 126°
2026-05-05 18:09 47.41931 8.02793 10384 ft 299 kts 99°
2026-05-05 18:10 47.42175 8.05822 10205 ft 298 kts 72°
2026-05-05 18:10 47.43164 8.08476 9956 ft 294 kts 56°
2026-05-05 18:10 47.44359 8.10937 9564 ft 295 kts 54°
2026-05-05 18:10 47.45578 8.13354 9149 ft 288 kts 53°
2026-05-05 18:11 47.46797 8.15615 8715 ft 277 kts 42°
2026-05-05 18:11 47.48407 8.17077 8327 ft 270 kts 18°
2026-05-05 18:11 47.50174 8.17990 7986 ft 268 kts 14°
2026-05-05 18:11 47.51951 8.18808 7640 ft 266 kts 13°
2026-05-05 18:12 47.53705 8.19619 7401 ft 262 kts 14°
2026-05-05 18:12 47.55322 8.20936 7063 ft 270 kts 37°
2026-05-05 18:12 47.56682 8.22777 6788 ft 267 kts 43°
2026-05-05 18:12 47.58015 8.24712 6435 ft 263 kts 43°
2026-05-05 18:13 47.59307 8.26597 6063 ft 259 kts 43°
2026-05-05 18:13 47.60563 8.28440 5636 ft 256 kts 43°
2026-05-05 18:13 47.61793 8.30321 5277 ft 244 kts 51°
2026-05-05 18:13 47.62460 8.32539 4838 ft 231 kts 84°
2026-05-05 18:14 47.62211 8.34749 4448 ft 210 kts 123°
2026-05-05 18:14 47.61249 8.36174 4103 ft 197 kts 152°
2026-05-05 18:14 47.60132 8.37361 4010 ft 199 kts 143°
2026-05-05 18:14 47.59101 8.38733 4014 ft 199 kts 141°
2026-05-05 18:15 47.58085 8.40129 3997 ft 199 kts 141°
2026-05-05 18:15 47.57061 8.41529 3826 ft 203 kts 141°
2026-05-05 18:15 47.56049 8.42915 3526 ft 191 kts 141°
2026-05-05 18:15 47.55120 8.44189 3273 ft 173 kts 142°
2026-05-05 18:16 47.54280 8.45337 3063 ft 157 kts 142°
2026-05-05 18:16 47.53480 8.46425 2897 ft 157 kts 142°
2026-05-05 18:16 47.52676 8.47522 2691 ft 158 kts 141°
2026-05-05 18:16 47.51873 8.48619 2454 ft 155 kts 141°
2026-05-05 18:17 47.51094 8.49681 2222 ft 151 kts 139°
2026-05-05 18:17 47.50329 8.50721 2011 ft 148 kts 140°
2026-05-05 18:17 47.49572 8.51759 1809 ft 149 kts 139°
2026-05-05 18:17 47.48817 8.52794 1603 ft 147 kts 140°
2026-05-05 18:18 47.48060 8.53815 1431 ft 146 kts 139°
2026-05-05 18:18 47.47382 8.54737 1404 ft 113 kts 137°
2026-05-05 18:18 47.46939 8.55343 1404 ft 60 kts 137°
2026-05-05 18:18 47.46745 8.55586 1409 ft 25 kts 147°
2026-05-05 18:19 47.46587 8.55682 1408 ft 24 kts 166°
2026-05-05 18:19 47.46475 8.55719 1406 ft 10 kts 167°
2026-05-05 18:19 47.46451 8.55727 1408 ft 7 kts 167°
2026-05-05 18:19 47.46392 8.55754 1407 ft 9 kts 154°
2026-05-05 18:20 47.46344 8.55810 1412 ft 8 kts 136°
2026-05-05 18:20 47.46306 8.55865 1415 ft 8 kts 136°
2026-05-05 18:20 47.46264 8.55895 1415 ft 7 kts 180°
2026-05-05 18:20 47.46233 8.55849 1411 ft 7 kts 260°
2026-05-05 18:21 47.46237 8.55753 1406 ft 13 kts 274°
2026-05-05 18:21 47.46246 8.55613 1407 ft 13 kts 277°
2026-05-05 18:21 47.46254 8.55509 1409 ft 7 kts 276°
2026-05-05 18:21 47.46255 8.55436 1408 ft 7 kts 250°
2026-05-05 18:22 47.46218 8.55400 1409 ft 5 kts 189°
2026-05-05 18:22 47.46197 8.55398 1406 ft 1 kts 184°
2026-05-05 18:22 47.46189 8.55397 1404 ft 0 kts 185°